Time,TemperatureF,DewpointF,PressureIn,WindDirection,WindDirectionDegrees,WindSpeedMPH,WindSpeedGustMPH,Humidity,HourlyPrecipIn,Conditions,Clouds,dailyrainin,SoftwareType,DateUTC
2013-08-06 00:01:00,71.6,70.4,29.81,SSE,163,3.1,3.1,96,0.00,,,0.00,VWS V14.01,2013-08-06 05:01:00,
2013-08-06 00:02:00,71.6,70.4,29.81,SSE,162,2.7,4.9,96,0.00,,,0.00,VWS V14.01,2013-08-06 05:02:00,
2013-08-06 00:03:00,71.6,70.4,29.81,SSE,147,5.4,6.3,96,0.00,,,0.00,VWS V14.01,2013-08-06 05:03:00,
2013-08-06 00:04:00,71.6,70.4,29.81,SSE,157,0.0,5.8,96,0.00,,,0.00,VWS V14.01,2013-08-06 05:04:00,
2013-08-06 00:06:00,71.6,70.4,29.81,SSE,160,4.9,5.8,96,0.00,,,0.00,VWS V14.01,2013-08-06 05:06:00,
2013-08-06 00:07:00,71.6,70.4,29.81,SSE,152,4.0,4.0,96,0.00,,,0.00,VWS V14.01,2013-08-06 05:07:00,
2013-08-06 00:08:00,71.6,70.4,29.81,SSE,152,3.1,4.0,96,0.00,,,0.00,VWS V14.01,2013-08-06 05:08:00,
2013-08-06 00:09:00,71.6,70.4,29.81,SSE,152,5.4,5.4,96,0.00,,,0.00,VWS V14.01,2013-08-06 05:09:00,
2013-08-06 00:12:00,71.6,71.0,29.81,SE,133,5.4,5.4,98,0.00,,,0.00,VWS V14.01,2013-08-06 05:12:00,
2013-08-06 00:13:00,71.6,71.0,29.81,SSE,163,3.1,3.6,98,0.00,,,0.00,VWS V14.01,2013-08-06 05:13:00,
2013-08-06 00:14:00,71.6,71.0,29.81,SE,138,4.0,4.0,98,0.00,,,0.00,VWS V14.01,2013-08-06 05:14:00,
2013-08-06 00:15:00,71.6,71.0,29.81,SSE,151,0.0,5.4,98,0.00,,,0.00,VWS V14.01,2013-08-06 05:15:00,
2013-08-06 00:18:00,71.6,71.0,29.81,SE,146,3.6,5.4,98,0.00,,,0.00,VWS V14.01,2013-08-06 05:18:00,
2013-08-06 00:20:00,71.6,71.0,29.81,SSE,157,6.3,6.3,98,0.00,,,0.00,VWS V14.01,2013-08-06 05:20:00,
2013-08-06 00:21:00,71.6,71.0,29.81,SSE,155,4.0,4.9,98,0.00,,,0.00,VWS V14.01,2013-08-06 05:21:00,
2013-08-06 00:23:00,71.6,71.0,29.81,SSE,153,4.5,5.8,98,0.00,,,0.00,VWS V14.01,2013-08-06 05:23:00,
2013-08-06 00:24:00,71.6,71.0,29.81,South,174,5.4,5.8,98,0.00,,,0.00,VWS V14.01,2013-08-06 05:24:00,
2013-08-06 00:25:00,71.6,71.6,29.81,SSE,152,5.4,5.4,100,0.00,,,0.00,VWS V14.01,2013-08-06 05:25:00,
2013-08-06 00:27:00,71.6,71.6,29.81,SSE,161,3.1,3.1,100,0.00,,,0.00,VWS V14.01,2013-08-06 05:27:00,
2013-08-06 00:28:00,71.6,71.6,29.81,SE,146,3.1,4.9,100,0.00,,,0.00,VWS V14.01,2013-08-06 05:28:00,
2013-08-06 00:29:00,71.6,71.6,29.81,SSE,152,3.6,3.6,100,0.00,,,0.00,VWS V14.01,2013-08-06 05:29:00,
2013-08-06 00:30:00,71.6,71.6,29.81,SSE,158,3.6,3.6,100,0.00,,,0.00,VWS V14.01,2013-08-06 05:30:00,
2013-08-06 00:32:00,71.6,71.6,29.81,SE,146,8.1,8.1,100,0.00,,,0.00,VWS V14.01,2013-08-06 05:32:00,
2013-08-06 00:33:00,71.6,71.6,29.81,SSE,167,5.4,8.1,100,0.00,,,0.00,VWS V14.01,2013-08-06 05:33:00,
2013-08-06 00:34:00,71.6,71.6,29.81,SE,146,4.5,5.4,100,0.00,,,0.00,VWS V14.01,2013-08-06 05:34:00,
2013-08-06 00:37:00,71.6,71.6,29.81,SSE,160,5.4,7.6,100,0.00,,,0.00,VWS V14.01,2013-08-06 05:37:00,
2013-08-06 00:38:00,71.6,71.6,29.81,SSE,163,4.0,8.3,100,0.00,,,0.00,VWS V14.01,2013-08-06 05:38:00,
2013-08-06 00:40:00,71.6,71.6,29.81,SSE,162,4.0,4.0,100,0.00,,,0.00,VWS V14.01,2013-08-06 05:40:00,
2013-08-06 00:42:00,71.6,71.6,29.81,SSE,154,4.0,4.0,100,0.00,,,0.00,VWS V14.01,2013-08-06 05:42:00,
2013-08-06 00:43:00,71.6,71.6,29.81,SE,145,4.9,6.3,100,0.00,,,0.00,VWS V14.01,2013-08-06 05:43:00,
2013-08-06 00:44:00,71.6,71.6,29.81,SSE,163,4.9,6.3,100,0.00,,,0.00,VWS V14.01,2013-08-06 05:44:00,
2013-08-06 00:46:00,71.6,71.6,29.81,SE,145,5.4,5.4,100,0.00,,,0.00,VWS V14.01,2013-08-06 05:46:00,
2013-08-06 00:47:00,71.4,71.4,29.81,SSE,161,2.7,5.4,100,0.00,,,0.00,VWS V14.01,2013-08-06 05:47:00,
2013-08-06 00:48:00,71.4,71.4,29.81,SSE,160,3.1,3.1,100,0.00,,,0.00,VWS V14.01,2013-08-06 05:48:00,
2013-08-06 00:49:00,71.4,71.4,29.81,SSE,160,0.0,3.6,100,0.00,,,0.00,VWS V14.01,2013-08-06 05:49:00,
2013-08-06 00:51:00,71.4,71.4,29.81,SSE,160,3.1,3.1,100,0.00,,,0.00,VWS V14.01,2013-08-06 05:51:00,
2013-08-06 00:53:00,71.4,71.4,29.81,SSE,160,3.1,3.6,100,0.00,,,0.00,VWS V14.01,2013-08-06 05:53:00,
2013-08-06 00:55:00,71.4,71.4,29.81,SSE,164,4.5,5.4,100,0.00,,,0.00,VWS V14.01,2013-08-06 05:55:00,
2013-08-06 00:56:00,71.4,71.4,29.81,SSE,163,2.7,3.1,100,0.00,,,0.00,VWS V14.01,2013-08-06 05:56:00,
2013-08-06 00:57:00,71.4,71.4,29.81,SSE,155,3.1,4.0,100,0.00,,,0.00,VWS V14.01,2013-08-06 05:57:00,
2013-08-06 00:58:00,71.4,71.4,29.81,SSE,151,5.8,5.8,100,0.00,,,0.00,VWS V14.01,2013-08-06 05:58:00,
2013-08-06 00:59:00,71.4,71.4,29.81,SSE,167,4.0,4.0,100,0.00,,,0.00,VWS V14.01,2013-08-06 05:59:00,
2013-08-06 01:00:00,71.4,71.4,29.81,SSE,152,4.0,4.0,100,0.00,,,0.00,VWS V14.01,2013-08-06 06:00:00,
2013-08-06 01:02:00,71.4,71.4,29.81,SSE,159,2.7,2.7,100,0.00,,,0.00,VWS V14.01,2013-08-06 06:02:00,
2013-08-06 01:03:00,71.2,71.2,29.81,SSE,159,0.0,3.6,100,0.00,,,0.00,VWS V14.01,2013-08-06 06:03:00,
2013-08-06 01:05:00,71.2,71.2,29.81,SSE,163,2.7,2.7,100,0.00,,,0.00,VWS V14.01,2013-08-06 06:05:00,
2013-08-06 01:06:00,71.2,71.2,29.81,SSE,152,4.0,4.0,100,0.00,,,0.00,VWS V14.01,2013-08-06 06:06:00,
2013-08-06 01:08:00,71.2,71.2,29.81,SSE,162,3.1,3.1,100,0.00,,,0.00,VWS V14.01,2013-08-06 06:08:00,
2013-08-06 01:11:00,71.1,71.1,29.81,South,188,4.9,6.3,100,0.00,,,0.00,VWS V14.01,2013-08-06 06:11:00,
2013-08-06 01:13:00,71.1,71.1,29.81,SSE,160,3.6,4.0,100,0.00,,,0.00,VWS V14.01,2013-08-06 06:13:00,
2013-08-06 01:14:00,71.1,71.1,29.81,SSE,168,2.7,4.0,100,0.00,,,0.00,VWS V14.01,2013-08-06 06:14:00,
2013-08-06 01:16:00,71.1,71.1,29.81,SSE,165,3.1,3.1,100,0.00,,,0.00,VWS V14.01,2013-08-06 06:16:00,
2013-08-06 01:17:00,71.1,71.1,29.81,SSE,157,3.1,3.1,100,0.00,,,0.00,VWS V14.01,2013-08-06 06:17:00,
2013-08-06 01:18:00,71.1,71.1,29.81,SSE,147,4.9,4.9,100,0.00,,,0.00,VWS V14.01,2013-08-06 06:18:00,
2013-08-06 01:19:00,71.1,71.1,29.81,SSE,165,3.1,4.9,100,0.00,,,0.00,VWS V14.01,2013-08-06 06:19:00,
2013-08-06 01:21:00,71.1,71.1,29.81,SSE,149,4.0,4.0,100,0.00,,,0.00,VWS V14.01,2013-08-06 06:21:00,
2013-08-06 01:23:00,71.1,71.1,29.81,SSE,147,4.0,4.9,100,0.00,,,0.00,VWS V14.01,2013-08-06 06:23:00,
2013-08-06 01:24:00,71.1,71.1,29.81,SSE,162,5.8,5.8,100,0.00,,,0.00,VWS V14.01,2013-08-06 06:24:00,
2013-08-06 01:25:00,71.1,71.1,29.81,South,169,3.6,5.8,100,0.00,,,0.00,VWS V14.01,2013-08-06 06:25:00,
2013-08-06 01:26:00,71.1,71.1,29.81,SSE,161,4.0,4.9,100,0.00,,,0.00,VWS V14.01,2013-08-06 06:26:00,
2013-08-06 01:29:00,71.1,71.1,29.81,SSE,158,3.1,3.1,100,0.00,,,0.00,VWS V14.01,2013-08-06 06:29:00,
2013-08-06 01:30:00,71.1,71.1,29.81,SSE,151,4.0,5.8,100,0.00,,,0.00,VWS V14.01,2013-08-06 06:30:00,
2013-08-06 01:33:00,71.1,71.1,29.81,SSE,162,4.0,4.0,100,0.00,,,0.00,VWS V14.01,2013-08-06 06:33:00,
2013-08-06 01:34:00,71.1,71.1,29.81,SE,134,4.0,4.0,100,0.00,,,0.00,VWS V14.01,2013-08-06 06:34:00,
2013-08-06 01:36:00,71.1,71.1,29.81,SSE,148,2.7,6.3,100,0.00,,,0.00,VWS V14.01,2013-08-06 06:36:00,
2013-08-06 01:39:00,71.1,71.1,29.81,SSE,155,4.0,4.9,100,0.00,,,0.00,VWS V14.01,2013-08-06 06:39:00,
2013-08-06 01:40:00,71.1,71.1,29.81,SE,143,6.3,6.3,100,0.00,,,0.00,VWS V14.01,2013-08-06 06:40:00,
2013-08-06 01:41:00,71.1,71.1,29.81,South,170,3.6,3.6,100,0.00,,,0.00,VWS V14.01,2013-08-06 06:41:00,
2013-08-06 01:44:00,71.1,71.1,29.81,SSE,159,5.4,5.4,100,0.00,,,0.00,VWS V14.01,2013-08-06 06:44:00,
2013-08-06 01:46:00,71.1,71.1,29.81,SSE,148,3.6,4.0,100,0.00,,,0.00,VWS V14.01,2013-08-06 06:46:00,
2013-08-06 01:47:00,71.1,71.1,29.81,SE,128,3.6,5.8,100,0.00,,,0.00,VWS V14.01,2013-08-06 06:47:00,
2013-08-06 01:48:00,71.1,71.1,29.81,SSE,153,3.6,5.4,100,0.00,,,0.00,VWS V14.01,2013-08-06 06:48:00,
2013-08-06 01:50:00,71.1,71.1,29.81,SSE,149,5.4,5.8,100,0.00,,,0.00,VWS V14.01,2013-08-06 06:50:00,
2013-08-06 01:51:00,71.1,71.1,29.81,SSE,147,2.7,3.6,100,0.00,,,0.00,VWS V14.01,2013-08-06 06:51:00,
2013-08-06 01:52:00,71.1,71.1,29.81,SSE,147,0.0,3.6,100,0.00,,,0.00,VWS V14.01,2013-08-06 06:52:00,
2013-08-06 01:54:00,71.1,71.1,29.81,SSE,162,2.2,3.1,100,0.00,,,0.00,VWS V14.01,2013-08-06 06:54:00,
2013-08-06 01:55:00,71.1,71.1,29.81,SSE,150,4.0,4.0,100,0.00,,,0.00,VWS V14.01,2013-08-06 06:55:00,
2013-08-06 01:56:00,71.1,71.1,29.81,SE,144,4.9,5.4,100,0.00,,,0.00,VWS V14.01,2013-08-06 06:56:00,
2013-08-06 01:57:00,71.1,71.1,29.78,SE,128,3.6,6.7,100,0.00,,,0.00,VWS V14.01,2013-08-06 06:57:00,
2013-08-06 02:00:00,71.1,71.1,29.78,SSE,165,2.2,4.0,100,0.00,,,0.00,VWS V14.01,2013-08-06 07:00:00,
2013-08-06 02:01:00,71.1,71.1,29.78,SSE,165,2.2,2.2,100,0.00,,,0.00,VWS V14.01,2013-08-06 07:01:00,
2013-08-06 02:02:00,70.9,70.9,29.78,SSE,165,0.0,2.7,100,0.00,,,0.00,VWS V14.01,2013-08-06 07:02:00,
2013-08-06 02:05:00,70.9,70.9,29.78,SE,126,3.6,3.6,100,0.00,,,0.00,VWS V14.01,2013-08-06 07:05:00,
2013-08-06 02:06:00,70.9,70.9,29.78,SE,143,0.0,2.7,100,0.00,,,0.00,VWS V14.01,2013-08-06 07:06:00,
2013-08-06 02:07:00,70.9,70.9,29.78,SSE,147,3.6,3.6,100,0.00,,,0.00,VWS V14.01,2013-08-06 07:07:00,
2013-08-06 02:10:00,70.9,70.9,29.78,SSE,150,3.6,3.6,100,0.00,,,0.00,VWS V14.01,2013-08-06 07:10:00,
2013-08-06 02:12:00,70.9,70.9,29.78,SE,146,0.0,3.1,100,0.00,,,0.00,VWS V14.01,2013-08-06 07:12:00,
2013-08-06 02:13:00,70.7,70.7,29.78,SE,146,0.0,0.0,100,0.00,,,0.00,VWS V14.01,2013-08-06 07:13:00,
2013-08-06 02:14:00,70.7,70.7,29.78,SSE,154,2.7,3.1,100,0.00,,,0.00,VWS V14.01,2013-08-06 07:14:00,
2013-08-06 02:15:00,70.7,70.7,29.78,SSE,157,3.1,3.1,100,0.00,,,0.00,VWS V14.01,2013-08-06 07:15:00,
2013-08-06 02:18:00,70.7,70.7,29.78,SSE,156,2.7,4.0,100,0.00,,,0.00,VWS V14.01,2013-08-06 07:18:00,
2013-08-06 02:19:00,70.7,70.7,29.78,SSE,165,3.1,3.6,100,0.00,,,0.00,VWS V14.01,2013-08-06 07:19:00,
2013-08-06 02:20:00,70.7,70.7,29.78,SSE,162,4.0,4.0,100,0.00,,,0.00,VWS V14.01,2013-08-06 07:20:00,
2013-08-06 02:21:00,70.7,70.7,29.78,SSE,161,3.1,3.1,100,0.00,,,0.00,VWS V14.01,2013-08-06 07:21:00,
2013-08-06 02:25:00,70.7,70.7,29.78,SSE,150,2.7,3.6,100,0.00,,,0.00,VWS V14.01,2013-08-06 07:25:00,
2013-08-06 02:26:00,70.7,70.7,29.78,SSE,147,3.6,4.9,100,0.00,,,0.00,VWS V14.01,2013-08-06 07:26:00,
2013-08-06 02:27:00,70.7,70.7,29.78,SSE,164,3.1,4.9,100,0.00,,,0.00,VWS V14.01,2013-08-06 07:27:00,
2013-08-06 02:30:00,70.7,70.7,29.78,SSE,155,0.0,0.0,100,0.00,,,0.00,VWS V14.01,2013-08-06 07:30:00,
2013-08-06 02:31:00,70.7,70.7,29.78,SE,146,0.0,2.7,100,0.00,,,0.00,VWS V14.01,2013-08-06 07:31:00,
2013-08-06 02:32:00,70.7,70.7,29.78,SSE,156,2.2,3.6,100,0.00,,,0.00,VWS V14.01,2013-08-06 07:32:00,
2013-08-06 02:35:00,70.7,70.7,29.78,SE,140,4.0,4.0,100,0.00,,,0.00,VWS V14.01,2013-08-06 07:35:00,
2013-08-06 02:37:00,70.5,70.5,29.78,SSE,164,3.6,3.6,100,0.00,,,0.00,VWS V14.01,2013-08-06 07:37:00,
2013-08-06 02:38:00,70.5,70.5,29.78,ESE,118,2.2,2.7,100,0.00,,,0.00,VWS V14.01,2013-08-06 07:38:00,
2013-08-06 02:40:00,70.5,70.5,29.78,South,172,3.1,3.1,100,0.00,,,0.00,VWS V14.01,2013-08-06 07:40:00,
2013-08-06 02:42:00,70.5,70.5,29.78,SSE,159,3.6,4.9,100,0.00,,,0.00,VWS V14.01,2013-08-06 07:42:00,
2013-08-06 02:43:00,70.5,70.5,29.78,South,176,0.0,4.9,100,0.00,,,0.00,VWS V14.01,2013-08-06 07:43:00,
2013-08-06 02:44:00,70.5,70.5,29.78,SSE,154,3.6,4.0,100,0.00,,,0.00,VWS V14.01,2013-08-06 07:44:00,
2013-08-06 02:47:00,70.5,70.5,29.78,SE,127,0.0,2.7,100,0.00,,,0.00,VWS V14.01,2013-08-06 07:47:00,
2013-08-06 02:49:00,70.5,70.5,29.78,SSE,152,4.9,4.9,100,0.00,,,0.00,VWS V14.01,2013-08-06 07:49:00,
2013-08-06 02:50:00,70.5,70.5,29.78,South,170,0.0,3.1,100,0.00,,,0.00,VWS V14.01,2013-08-06 07:50:00,
2013-08-06 02:52:00,70.5,70.5,29.78,SSE,147,0.0,0.0,100,0.00,,,0.00,VWS V14.01,2013-08-06 07:52:00,
2013-08-06 02:53:00,70.5,70.5,29.78,SE,140,2.7,3.1,100,0.00,,,0.00,VWS V14.01,2013-08-06 07:53:00,
2013-08-06 02:54:00,70.5,70.5,29.78,SSE,161,2.2,3.6,100,0.00,,,0.00,VWS V14.01,2013-08-06 07:54:00,
2013-08-06 02:55:00,70.5,70.5,29.78,SSE,152,2.7,3.6,100,0.00,,,0.00,VWS V14.01,2013-08-06 07:55:00,
2013-08-06 02:57:00,70.5,70.5,29.78,SE,142,2.2,2.2,100,0.00,,,0.00,VWS V14.01,2013-08-06 07:57:00,
2013-08-06 02:58:00,70.5,70.5,29.78,SSE,154,0.0,5.8,100,0.00,,,0.00,VWS V14.01,2013-08-06 07:58:00,
2013-08-06 03:00:00,70.5,70.5,29.78,SSE,158,3.6,4.5,100,0.00,,,0.00,VWS V14.01,2013-08-06 08:00:00,
2013-08-06 03:01:00,70.5,70.5,29.78,SSE,155,3.6,4.0,100,0.00,,,0.00,VWS V14.01,2013-08-06 08:01:00,
2013-08-06 03:02:00,70.5,70.5,29.78,SSE,168,3.6,3.6,100,0.00,,,0.00,VWS V14.01,2013-08-06 08:02:00,
2013-08-06 03:05:00,70.5,70.5,29.78,SSE,149,2.7,4.0,100,0.00,,,0.00,VWS V14.01,2013-08-06 08:05:00,
2013-08-06 03:06:00,70.5,70.5,29.78,SSE,161,2.2,2.2,100,0.00,,,0.00,VWS V14.01,2013-08-06 08:06:00,
2013-08-06 03:07:00,70.5,70.5,29.78,SSE,161,3.1,3.1,100,0.00,,,0.00,VWS V14.01,2013-08-06 08:07:00,
2013-08-06 03:08:00,70.3,70.3,29.78,South,177,3.6,3.6,100,0.00,,,0.00,VWS V14.01,2013-08-06 08:08:00,
2013-08-06 03:10:00,70.3,70.3,29.78,South,177,2.7,3.1,100,0.00,,,0.00,VWS V14.01,2013-08-06 08:10:00,
2013-08-06 03:12:00,70.3,70.3,29.78,SE,130,5.4,5.4,100,0.00,,,0.00,VWS V14.01,2013-08-06 08:12:00,
2013-08-06 03:13:00,70.3,70.3,29.78,SSE,164,3.1,5.8,100,0.00,,,0.00,VWS V14.01,2013-08-06 08:13:00,
2013-08-06 03:14:00,70.3,70.3,29.78,SSE,161,2.7,3.1,100,0.00,,,0.00,VWS V14.01,2013-08-06 08:14:00,
2013-08-06 03:16:00,70.3,70.3,29.78,SSE,162,3.1,3.1,100,0.00,,,0.00,VWS V14.01,2013-08-06 08:16:00,
2013-08-06 03:17:00,70.3,70.3,29.78,SSE,155,3.6,4.0,100,0.00,,,0.00,VWS V14.01,2013-08-06 08:17:00,
2013-08-06 03:18:00,70.2,70.2,29.78,SSE,155,3.6,4.0,100,0.00,,,0.00,VWS V14.01,2013-08-06 08:18:00,
2013-08-06 03:20:00,70.2,70.2,29.78,ESE,118,2.7,2.7,100,0.00,,,0.00,VWS V14.01,2013-08-06 08:20:00,
2013-08-06 03:21:00,70.2,70.2,29.78,SSE,149,3.6,6.3,100,0.00,,,0.00,VWS V14.01,2013-08-06 08:21:00,
2013-08-06 03:23:00,70.3,70.3,29.78,SSE,158,0.0,0.0,100,0.00,,,0.00,VWS V14.01,2013-08-06 08:23:00,
2013-08-06 03:25:00,70.3,70.3,29.78,SE,139,2.7,2.7,100,0.00,,,0.00,VWS V14.01,2013-08-06 08:25:00,
2013-08-06 03:26:00,70.3,70.3,29.78,SE,143,2.2,2.2,100,0.00,,,0.00,VWS V14.01,2013-08-06 08:26:00,
2013-08-06 03:27:00,70.3,70.3,29.78,SE,143,3.1,3.1,100,0.00,,,0.00,VWS V14.01,2013-08-06 08:27:00,
2013-08-06 03:28:00,70.3,70.3,29.78,SSE,157,2.2,2.7,100,0.00,,,0.00,VWS V14.01,2013-08-06 08:28:00,
2013-08-06 03:29:00,70.2,70.2,29.78,SSE,157,0.0,2.7,100,0.00,,,0.00,VWS V14.01,2013-08-06 08:29:00,
2013-08-06 03:31:00,70.2,70.2,29.78,South,171,2.7,2.7,100,0.00,,,0.00,VWS V14.01,2013-08-06 08:31:00,
2013-08-06 03:32:00,70.2,70.2,29.78,SSE,166,0.0,2.7,100,0.00,,,0.00,VWS V14.01,2013-08-06 08:32:00,
2013-08-06 03:34:00,70.2,70.2,29.78,SSE,151,4.0,4.0,100,0.00,,,0.00,VWS V14.01,2013-08-06 08:34:00,
2013-08-06 03:36:00,70.2,70.2,29.78,SSE,166,3.6,4.9,100,0.00,,,0.00,VWS V14.01,2013-08-06 08:36:00,
2013-08-06 03:38:00,70.2,70.2,29.78,SSE,154,5.4,5.4,100,0.00,,,0.00,VWS V14.01,2013-08-06 08:38:00,
2013-08-06 03:39:00,70.2,70.2,29.78,SSE,160,2.7,5.4,100,0.00,,,0.00,VWS V14.01,2013-08-06 08:39:00,
2013-08-06 03:40:00,70.2,70.2,29.78,SSE,160,0.0,4.0,100,0.00,,,0.00,VWS V14.01,2013-08-06 08:40:00,
2013-08-06 03:41:00,70.2,70.2,29.78,SSE,158,2.2,3.1,100,0.00,,,0.00,VWS V14.01,2013-08-06 08:41:00,
2013-08-06 03:42:00,70.2,70.2,29.78,SSW,192,2.7,4.0,100,0.00,,,0.00,VWS V14.01,2013-08-06 08:42:00,
2013-08-06 03:43:00,70.2,70.2,29.78,SSE,152,3.6,3.6,100,0.00,,,0.00,VWS V14.01,2013-08-06 08:43:00,
2013-08-06 03:44:00,70.2,70.2,29.78,SSE,160,3.6,3.6,100,0.00,,,0.00,VWS V14.01,2013-08-06 08:44:00,
2013-08-06 03:46:00,70.2,70.2,29.78,SSE,152,2.7,2.7,100,0.00,,,0.00,VWS V14.01,2013-08-06 08:46:00,
2013-08-06 03:47:00,70.2,70.2,29.78,SSE,159,3.6,3.6,100,0.00,,,0.00,VWS V14.01,2013-08-06 08:47:00,
2013-08-06 03:48:00,70.2,70.2,29.78,SSE,157,0.0,0.0,100,0.00,,,0.00,VWS V14.01,2013-08-06 08:48:00,
2013-08-06 03:50:00,70.2,70.2,29.78,SSE,161,4.0,4.0,100,0.00,,,0.00,VWS V14.01,2013-08-06 08:50:00,
2013-08-06 03:52:00,70.2,70.2,29.78,SSE,164,3.6,4.0,100,0.00,,,0.00,VWS V14.01,2013-08-06 08:52:00,
2013-08-06 03:54:00,70.2,70.2,29.78,SSE,155,4.0,5.8,100,0.00,,,0.00,VWS V14.01,2013-08-06 08:54:00,
2013-08-06 03:56:00,70.2,70.2,29.78,SSE,157,2.2,5.4,100,0.00,,,0.00,VWS V14.01,2013-08-06 08:56:00,
2013-08-06 03:57:00,70.2,70.2,29.78,SSE,167,2.2,5.4,100,0.00,,,0.00,VWS V14.01,2013-08-06 08:57:00,
2013-08-06 03:59:00,70.2,70.2,29.78,SSE,154,2.2,4.9,100,0.00,,,0.00,VWS V14.01,2013-08-06 08:59:00,
2013-08-06 04:00:00,70.2,70.2,29.78,SSE,153,5.8,5.8,100,0.00,,,0.00,VWS V14.01,2013-08-06 09:00:00,
2013-08-06 04:01:00,70.2,70.2,29.78,SE,133,2.2,5.8,100,0.00,,,0.00,VWS V14.01,2013-08-06 09:01:00,
2013-08-06 04:03:00,70.2,70.2,29.78,SSE,152,2.7,6.3,100,0.00,,,0.00,VWS V14.01,2013-08-06 09:03:00,
2013-08-06 04:04:00,70.2,70.2,29.78,South,172,2.7,2.7,100,0.00,,,0.00,VWS V14.01,2013-08-06 09:04:00,
2013-08-06 04:05:00,70.2,70.2,29.78,SSE,159,4.9,6.3,100,0.00,,,0.00,VWS V14.01,2013-08-06 09:05:00,
2013-08-06 04:06:00,70.2,70.2,29.78,SSE,166,5.4,5.4,100,0.00,,,0.00,VWS V14.01,2013-08-06 09:06:00,
2013-08-06 04:07:00,70.2,70.2,29.78,SSE,166,2.2,3.1,100,0.00,,,0.00,VWS V14.01,2013-08-06 09:07:00,
2013-08-06 04:09:00,70.3,70.3,29.78,SSE,153,3.6,4.0,100,0.00,,,0.00,VWS V14.01,2013-08-06 09:09:00,
2013-08-06 04:10:00,70.3,70.3,29.78,SSE,164,4.0,4.0,100,0.00,,,0.00,VWS V14.01,2013-08-06 09:10:00,
2013-08-06 04:11:00,70.3,70.3,29.78,SSE,157,3.6,4.0,100,0.00,,,0.00,VWS V14.01,2013-08-06 09:11:00,
2013-08-06 04:13:00,70.3,70.3,29.78,SE,143,2.7,4.0,100,0.00,,,0.00,VWS V14.01,2013-08-06 09:13:00,
2013-08-06 04:15:00,70.2,70.2,29.78,South,171,3.1,3.6,100,0.00,,,0.00,VWS V14.01,2013-08-06 09:15:00,
2013-08-06 04:17:00,70.2,70.2,29.78,SSE,147,4.0,4.0,100,0.00,,,0.00,VWS V14.01,2013-08-06 09:17:00,
2013-08-06 04:18:00,70.2,70.2,29.78,SSE,166,3.6,5.4,100,0.00,,,0.00,VWS V14.01,2013-08-06 09:18:00,
2013-08-06 04:20:00,70.2,70.2,29.78,SSE,157,4.0,4.0,100,0.00,,,0.00,VWS V14.01,2013-08-06 09:20:00,
2013-08-06 04:21:00,70.2,70.2,29.78,SSE,159,3.1,4.0,100,0.00,,,0.00,VWS V14.01,2013-08-06 09:21:00,
2013-08-06 04:23:00,70.2,70.2,29.78,South,169,3.1,3.1,100,0.00,,,0.00,VWS V14.01,2013-08-06 09:23:00,
2013-08-06 04:26:00,70.2,70.2,29.78,SSE,154,4.5,4.5,100,0.00,,,0.00,VWS V14.01,2013-08-06 09:26:00,
2013-08-06 04:27:00,70.2,70.2,29.78,SSE,167,5.8,5.8,100,0.00,,,0.00,VWS V14.01,2013-08-06 09:27:00,
2013-08-06 04:28:00,70.2,70.2,29.78,SSE,155,5.8,6.3,100,0.00,,,0.00,VWS V14.01,2013-08-06 09:28:00,
2013-08-06 04:29:00,70.2,70.2,29.78,SSE,159,5.8,6.3,100,0.00,,,0.00,VWS V14.01,2013-08-06 09:29:00,
2013-08-06 04:32:00,70.3,70.3,29.78,SSE,150,3.6,3.6,100,0.00,,,0.00,VWS V14.01,2013-08-06 09:32:00,
2013-08-06 04:33:00,70.3,70.3,29.78,SE,131,3.1,3.1,100,0.00,,,0.00,VWS V14.01,2013-08-06 09:33:00,
2013-08-06 04:34:00,70.3,70.3,29.78,SE,124,3.6,3.6,100,0.00,,,0.00,VWS V14.01,2013-08-06 09:34:00,
2013-08-06 04:38:00,70.3,70.3,29.78,SE,124,3.6,3.6,100,0.00,,,0.00,VWS V14.01,2013-08-06 09:38:00,
2013-08-06 04:39:00,70.3,70.3,29.78,SSE,168,3.1,3.1,100,0.00,,,0.00,VWS V14.01,2013-08-06 09:39:00,
2013-08-06 04:40:00,70.3,70.3,29.78,SSE,152,5.4,5.4,100,0.00,,,0.00,VWS V14.01,2013-08-06 09:40:00,
2013-08-06 04:45:00,70.5,70.5,29.78,SSE,165,3.1,4.9,100,0.00,,,0.00,VWS V14.01,2013-08-06 09:45:00,
2013-08-06 04:46:00,70.5,70.5,29.78,SSE,163,3.1,3.6,100,0.00,,,0.00,VWS V14.01,2013-08-06 09:46:00,
2013-08-06 04:50:00,70.5,70.5,29.78,SSE,156,4.9,4.9,100,0.00,,,0.00,VWS V14.01,2013-08-06 09:50:00,
2013-08-06 04:51:00,70.5,70.5,29.78,South,171,3.6,4.9,100,0.00,,,0.00,VWS V14.01,2013-08-06 09:51:00,
2013-08-06 04:52:00,70.5,70.5,29.78,SSE,147,0.0,2.2,100,0.00,,,0.00,VWS V14.01,2013-08-06 09:52:00,
2013-08-06 04:56:00,70.7,70.7,29.78,SE,136,5.8,5.8,100,0.00,,,0.00,VWS V14.01,2013-08-06 09:56:00,
2013-08-06 04:57:00,70.7,70.7,29.78,SE,127,4.9,4.9,100,0.00,,,0.00,VWS V14.01,2013-08-06 09:57:00,
2013-08-06 05:01:00,70.7,70.7,29.78,SSE,168,5.4,5.4,100,0.00,,,0.00,VWS V14.01,2013-08-06 10:01:00,
2013-08-06 05:02:00,70.7,70.7,29.78,SE,134,3.1,5.4,100,0.00,,,0.00,VWS V14.01,2013-08-06 10:02:00,
2013-08-06 05:07:00,70.7,70.7,29.78,SSE,153,5.8,5.8,100,0.00,,,0.00,VWS V14.01,2013-08-06 10:07:00,
2013-08-06 05:08:00,70.7,70.7,29.78,SSE,154,6.3,6.3,100,0.00,,,0.00,VWS V14.01,2013-08-06 10:08:00,
2013-08-06 05:13:00,70.9,70.9,29.78,ESE,119,5.4,5.4,100,0.00,,,0.00,VWS V14.01,2013-08-06 10:13:00,
2013-08-06 05:14:00,70.9,70.9,29.78,ESE,112,3.1,5.4,100,0.00,,,0.00,VWS V14.01,2013-08-06 10:14:00,
2013-08-06 05:18:00,70.9,70.9,29.78,SSE,150,5.8,7.6,100,0.00,,,0.00,VWS V14.01,2013-08-06 10:18:00,
2013-08-06 05:19:00,70.9,70.9,29.78,SSE,152,5.4,5.8,100,0.00,,,0.00,VWS V14.01,2013-08-06 10:19:00,
2013-08-06 05:21:00,70.9,70.9,29.78,SE,125,5.4,5.4,100,0.00,,,0.00,VWS V14.01,2013-08-06 10:21:00,
2013-08-06 05:23:00,71.1,71.1,29.78,SSE,158,3.1,8.3,100,0.00,,,0.00,VWS V14.01,2013-08-06 10:23:00,
2013-08-06 05:24:00,71.1,71.1,29.78,SE,140,7.6,8.1,100,0.00,,,0.00,VWS V14.01,2013-08-06 10:24:00,
2013-08-06 05:25:00,71.1,71.1,29.78,South,171,5.8,8.1,100,0.00,,,0.00,VWS V14.01,2013-08-06 10:25:00,
2013-08-06 05:26:00,71.1,71.1,29.78,SSE,149,3.1,6.3,100,0.00,,,0.00,VWS V14.01,2013-08-06 10:26:00,
2013-08-06 05:29:00,71.1,71.1,29.78,South,173,8.1,8.1,100,0.00,,,0.00,VWS V14.01,2013-08-06 10:29:00,
2013-08-06 05:30:00,71.1,71.1,29.78,SE,145,8.3,8.3,100,0.00,,,0.00,VWS V14.01,2013-08-06 10:30:00,
2013-08-06 05:31:00,71.1,71.1,29.78,SSE,155,3.1,3.1,100,0.00,,,0.00,VWS V14.01,2013-08-06 10:31:00,
2013-08-06 05:34:00,71.2,71.2,29.78,SSE,153,8.3,8.3,100,0.00,,,0.00,VWS V14.01,2013-08-06 10:34:00,
2013-08-06 05:35:00,71.2,71.2,29.78,SSE,149,7.2,8.3,100,0.00,,,0.00,VWS V14.01,2013-08-06 10:35:00,
2013-08-06 05:36:00,71.2,71.2,29.78,SE,138,4.0,5.8,100,0.00,,,0.00,VWS V14.01,2013-08-06 10:36:00,
2013-08-06 05:37:00,71.2,71.2,29.78,SE,138,5.8,5.8,100,0.00,,,0.00,VWS V14.01,2013-08-06 10:37:00,
2013-08-06 05:40:00,71.2,71.2,29.78,South,171,5.4,6.3,100,0.00,,,0.00,VWS V14.01,2013-08-06 10:40:00,
2013-08-06 05:41:00,71.2,71.2,29.78,SE,133,6.3,6.3,100,0.00,,,0.00,VWS V14.01,2013-08-06 10:41:00,
2013-08-06 05:42:00,71.2,71.2,29.78,SSE,150,3.1,3.6,100,0.00,,,0.00,VWS V14.01,2013-08-06 10:42:00,
2013-08-06 05:45:00,71.2,71.2,29.78,SSE,152,7.6,8.3,100,0.00,,,0.00,VWS V14.01,2013-08-06 10:45:00,
2013-08-06 05:46:00,71.4,71.4,29.78,South,180,7.6,8.1,100,0.00,,,0.00,VWS V14.01,2013-08-06 10:46:00,
2013-08-06 05:47:00,71.4,71.4,29.78,SSE,151,6.3,8.1,100,0.00,,,0.00,VWS V14.01,2013-08-06 10:47:00,
2013-08-06 05:48:00,71.4,71.4,29.78,SSE,159,6.3,7.6,100,0.00,,,0.00,VWS V14.01,2013-08-06 10:48:00,
2013-08-06 05:50:00,71.4,71.4,29.78,South,171,8.1,11.0,100,0.00,,,0.00,VWS V14.01,2013-08-06 10:50:00,
2013-08-06 05:52:00,71.4,71.4,29.78,SSE,161,3.6,8.7,100,0.00,,,0.00,VWS V14.01,2013-08-06 10:52:00,
2013-08-06 05:53:00,71.4,71.4,29.78,SE,146,6.3,7.6,100,0.00,,,0.00,VWS V14.01,2013-08-06 10:53:00,
2013-08-06 05:54:00,71.4,71.4,29.78,SSE,160,5.4,7.6,100,0.00,,,0.00,VWS V14.01,2013-08-06 10:54:00,
2013-08-06 05:56:00,71.6,71.6,29.78,SSE,159,8.3,8.3,100,0.00,,,0.00,VWS V14.01,2013-08-06 10:56:00,
2013-08-06 05:57:00,71.6,71.6,29.78,South,176,6.3,8.3,100,0.00,,,0.00,VWS V14.01,2013-08-06 10:57:00,
2013-08-06 05:58:00,71.6,71.6,29.78,SSE,160,6.3,7.6,100,0.00,,,0.00,VWS V14.01,2013-08-06 10:58:00,
2013-08-06 05:59:00,71.6,71.6,29.78,South,175,5.8,5.8,100,0.00,,,0.00,VWS V14.01,2013-08-06 10:59:00,
2013-08-06 06:01:00,71.8,71.8,29.78,South,175,6.3,6.3,100,0.00,,,0.00,VWS V14.01,2013-08-06 11:01:00,
2013-08-06 06:03:00,71.8,71.8,29.78,SSE,149,11.9,11.9,100,0.00,,,0.00,VWS V14.01,2013-08-06 11:03:00,
2013-08-06 06:04:00,71.8,71.8,29.78,SSE,166,10.5,10.5,100,0.00,,,0.00,VWS V14.01,2013-08-06 11:04:00,
2013-08-06 06:06:00,71.8,71.8,29.78,SSE,163,6.3,8.3,100,0.00,,,0.00,VWS V14.01,2013-08-06 11:06:00,
2013-08-06 06:09:00,71.8,71.8,29.78,SSW,193,5.4,5.8,100,0.00,,,0.00,VWS V14.01,2013-08-06 11:09:00,
2013-08-06 06:10:00,71.8,71.8,29.78,SSE,163,3.1,5.8,100,0.00,,,0.00,VWS V14.01,2013-08-06 11:10:00,
2013-08-06 06:13:00,72.0,72.0,29.78,SSE,151,5.8,10.5,100,0.00,,,0.00,VWS V14.01,2013-08-06 11:13:00,
2013-08-06 06:15:00,72.0,72.0,29.78,SE,146,5.8,8.7,100,0.00,,,0.00,VWS V14.01,2013-08-06 11:15:00,
2013-08-06 06:16:00,72.0,72.0,29.78,SSE,163,8.7,10.1,100,0.00,,,0.00,VWS V14.01,2013-08-06 11:16:00,
2013-08-06 06:19:00,72.1,72.2,29.78,SSE,149,6.3,7.6,100,0.00,,,0.00,VWS V14.01,2013-08-06 11:19:00,
2013-08-06 06:20:00,72.1,72.2,29.78,SSE,151,3.6,4.0,100,0.00,,,0.00,VWS V14.01,2013-08-06 11:20:00,
2013-08-06 06:21:00,72.1,72.2,29.78,South,185,5.4,6.3,100,0.00,,,0.00,VWS V14.01,2013-08-06 11:21:00,
2013-08-06 06:22:00,72.1,72.2,29.78,SSE,165,5.4,5.4,100,0.00,,,0.00,VWS V14.01,2013-08-06 11:22:00,
2013-08-06 06:24:00,72.1,72.2,29.78,South,175,3.6,7.6,100,0.00,,,0.00,VWS V14.01,2013-08-06 11:24:00,
2013-08-06 06:27:00,72.3,72.3,29.81,South,170,6.3,6.3,100,0.00,,,0.00,VWS V14.01,2013-08-06 11:27:00,
2013-08-06 06:28:00,72.3,72.3,29.81,SSE,159,8.7,8.7,100,0.00,,,0.00,VWS V14.01,2013-08-06 11:28:00,
2013-08-06 06:30:00,72.3,72.3,29.81,South,172,8.1,9.6,100,0.00,,,0.00,VWS V14.01,2013-08-06 11:30:00,
2013-08-06 06:32:00,72.3,72.3,29.81,SSE,156,5.4,5.4,100,0.00,,,0.00,VWS V14.01,2013-08-06 11:32:00,
2013-08-06 06:33:00,72.3,72.3,29.81,SSE,168,7.6,8.1,100,0.00,,,0.00,VWS V14.01,2013-08-06 11:33:00,
2013-08-06 06:34:00,72.5,72.5,29.81,South,174,8.3,8.3,100,0.00,,,0.00,VWS V14.01,2013-08-06 11:34:00,
2013-08-06 06:35:00,72.5,72.5,29.81,SSE,156,4.9,8.3,100,0.00,,,0.00,VWS V14.01,2013-08-06 11:35:00,
2013-08-06 06:38:00,72.5,72.5,29.81,SSE,168,5.8,7.6,100,0.00,,,0.00,VWS V14.01,2013-08-06 11:38:00,
2013-08-06 06:39:00,72.5,72.5,29.81,South,191,7.6,7.6,100,0.00,,,0.00,VWS V14.01,2013-08-06 11:39:00,
2013-08-06 06:41:00,72.7,72.7,29.81,South,175,5.4,5.4,100,0.00,,,0.00,VWS V14.01,2013-08-06 11:41:00,
2013-08-06 06:43:00,72.7,72.7,29.81,South,180,6.7,6.7,100,0.00,,,0.00,VWS V14.01,2013-08-06 11:43:00,
2013-08-06 06:44:00,72.7,72.7,29.81,South,175,10.1,10.1,100,0.00,,,0.00,VWS V14.01,2013-08-06 11:44:00,
2013-08-06 06:45:00,72.7,72.7,29.81,South,180,7.6,7.6,100,0.00,,,0.00,VWS V14.01,2013-08-06 11:45:00,
2013-08-06 06:47:00,72.7,72.7,29.81,South,180,5.4,8.1,100,0.00,,,0.00,VWS V14.01,2013-08-06 11:47:00,
2013-08-06 06:49:00,72.9,72.9,29.81,South,170,6.3,8.1,100,0.00,,,0.00,VWS V14.01,2013-08-06 11:49:00,
2013-08-06 06:50:00,72.9,72.9,29.81,South,169,5.4,6.3,100,0.00,,,0.00,VWS V14.01,2013-08-06 11:50:00,
2013-08-06 06:52:00,72.9,72.9,29.81,South,184,8.1,8.1,100,0.00,,,0.00,VWS V14.01,2013-08-06 11:52:00,
2013-08-06 06:54:00,72.9,72.9,29.81,South,180,7.6,7.6,100,0.00,,,0.00,VWS V14.01,2013-08-06 11:54:00,
2013-08-06 06:55:00,72.9,72.9,29.81,SW,221,6.3,7.6,100,0.00,,,0.00,VWS V14.01,2013-08-06 11:55:00,
2013-08-06 06:56:00,72.9,72.9,29.81,South,183,8.3,8.3,100,0.00,,,0.00,VWS V14.01,2013-08-06 11:56:00,
2013-08-06 06:57:00,72.9,72.9,29.81,South,170,7.6,7.6,100,0.00,,,0.00,VWS V14.01,2013-08-06 11:57:00,
2013-08-06 07:00:00,73.0,73.1,29.81,South,176,6.3,8.3,100,0.00,,,0.00,VWS V14.01,2013-08-06 12:00:00,
2013-08-06 07:01:00,73.0,73.1,29.81,South,186,8.3,8.3,100,0.00,,,0.00,VWS V14.01,2013-08-06 12:01:00,
2013-08-06 07:03:00,73.0,73.1,29.81,SSE,166,6.3,8.1,100,0.00,,,0.00,VWS V14.01,2013-08-06 12:03:00,
2013-08-06 07:06:00,73.0,73.1,29.81,SSW,192,7.6,7.6,100,0.00,,,0.00,VWS V14.01,2013-08-06 12:06:00,
2013-08-06 07:07:00,73.0,73.1,29.81,South,191,5.4,7.6,100,0.00,,,0.00,VWS V14.01,2013-08-06 12:07:00,
2013-08-06 07:08:00,73.0,73.1,29.81,SSE,161,5.4,6.3,100,0.00,,,0.00,VWS V14.01,2013-08-06 12:08:00,
2013-08-06 07:12:00,73.2,73.2,29.81,SSW,205,8.1,8.1,100,0.00,,,0.00,VWS V14.01,2013-08-06 12:12:00,
2013-08-06 07:13:00,73.2,73.2,29.81,SSE,160,7.6,8.7,100,0.00,,,0.00,VWS V14.01,2013-08-06 12:13:00,
2013-08-06 07:17:00,73.2,73.2,29.81,South,177,4.9,7.6,100,0.00,,,0.00,VWS V14.01,2013-08-06 12:17:00,
2013-08-06 07:19:00,73.2,73.2,29.81,South,182,10.1,10.1,100,0.00,,,0.00,VWS V14.01,2013-08-06 12:19:00,
2013-08-06 07:20:00,73.2,73.2,29.81,South,174,8.1,10.1,100,0.00,,,0.00,VWS V14.01,2013-08-06 12:20:00,
2013-08-06 07:22:00,73.2,73.2,29.81,South,178,5.8,8.7,100,0.00,,,0.00,VWS V14.01,2013-08-06 12:22:00,
2013-08-06 07:23:00,73.2,73.2,29.81,SSW,202,7.6,8.7,100,0.00,,,0.00,VWS V14.01,2013-08-06 12:23:00,
2013-08-06 07:25:00,73.2,73.2,29.81,South,180,4.0,7.2,100,0.00,,,0.00,VWS V14.01,2013-08-06 12:25:00,
2013-08-06 07:27:00,73.4,73.4,29.84,South,173,8.1,8.1,100,0.00,,,0.00,VWS V14.01,2013-08-06 12:27:00,
2013-08-06 07:29:00,73.4,73.4,29.84,SSW,196,6.3,8.7,100,0.00,,,0.00,VWS V14.01,2013-08-06 12:29:00,
2013-08-06 07:30:00,73.4,73.4,29.84,SSW,194,9.6,9.6,100,0.00,,,0.00,VWS V14.01,2013-08-06 12:30:00,
2013-08-06 07:31:00,73.4,73.4,29.84,SSE,159,5.8,8.3,100,0.00,,,0.00,VWS V14.01,2013-08-06 12:31:00,
2013-08-06 07:33:00,73.4,73.4,29.84,South,185,7.6,7.6,100,0.00,,,0.00,VWS V14.01,2013-08-06 12:33:00,
2013-08-06 07:35:00,73.6,73.6,29.84,South,170,5.8,5.8,100,0.00,,,0.00,VWS V14.01,2013-08-06 12:35:00,
2013-08-06 07:36:00,73.6,73.6,29.84,South,179,6.3,6.3,100,0.00,,,0.00,VWS V14.01,2013-08-06 12:36:00,
2013-08-06 07:37:00,73.6,73.6,29.84,SE,141,6.3,6.3,100,0.00,,,0.00,VWS V14.01,2013-08-06 12:37:00,
2013-08-06 07:38:00,73.8,73.8,29.84,SSW,202,7.6,7.6,100,0.00,,,0.00,VWS V14.01,2013-08-06 12:38:00,
2013-08-06 07:40:00,73.8,73.8,29.84,SSE,163,7.6,7.6,100,0.00,,,0.00,VWS V14.01,2013-08-06 12:40:00,
2013-08-06 07:41:00,73.9,73.9,29.84,South,174,5.8,5.8,100,0.00,,,0.00,VWS V14.01,2013-08-06 12:41:00,
2013-08-06 07:42:00,73.9,73.9,29.84,South,176,6.3,8.1,100,0.00,,,0.00,VWS V14.01,2013-08-06 12:42:00,
2013-08-06 07:43:00,74.1,74.1,29.84,South,173,6.3,6.3,100,0.00,,,0.00,VWS V14.01,2013-08-06 12:43:00,
2013-08-06 07:44:00,74.1,74.1,29.84,South,176,5.8,6.3,100,0.00,,,0.00,VWS V14.01,2013-08-06 12:44:00,
2013-08-06 07:47:00,74.3,74.3,29.84,South,184,5.4,5.8,100,0.00,,,0.00,VWS V14.01,2013-08-06 12:47:00,
2013-08-06 07:48:00,74.3,74.3,29.84,SSW,196,7.6,8.3,100,0.00,,,0.00,VWS V14.01,2013-08-06 12:48:00,
2013-08-06 07:49:00,74.5,74.5,29.84,South,173,6.7,7.6,100,0.00,,,0.00,VWS V14.01,2013-08-06 12:49:00,
2013-08-06 07:52:00,74.5,74.5,29.84,South,186,6.3,7.2,100,0.00,,,0.00,VWS V14.01,2013-08-06 12:52:00,
2013-08-06 07:53:00,74.7,74.7,29.84,SE,143,5.4,7.6,100,0.00,,,0.00,VWS V14.01,2013-08-06 12:53:00,
2013-08-06 07:54:00,74.7,74.7,29.84,South,172,6.3,6.3,100,0.00,,,0.00,VWS V14.01,2013-08-06 12:54:00,
2013-08-06 07:57:00,74.7,74.7,29.84,South,179,5.8,6.3,100,0.00,,,0.00,VWS V14.01,2013-08-06 12:57:00,
2013-08-06 07:58:00,74.8,74.8,29.84,SW,221,8.1,8.1,100,0.00,,,0.00,VWS V14.01,2013-08-06 12:58:00,
2013-08-06 07:59:00,74.8,74.8,29.84,SSW,202,6.3,8.1,100,0.00,,,0.00,VWS V14.01,2013-08-06 12:59:00,
2013-08-06 08:03:00,75.0,75.0,29.84,SSW,197,6.3,6.3,100,0.00,,,0.00,VWS V14.01,2013-08-06 13:03:00,
2013-08-06 08:04:00,75.0,75.0,29.84,SSW,211,5.4,6.3,100,0.00,,,0.00,VWS V14.01,2013-08-06 13:04:00,
2013-08-06 08:05:00,75.0,75.0,29.84,South,182,6.7,6.7,100,0.00,,,0.00,VWS V14.01,2013-08-06 13:05:00,
2013-08-06 08:07:00,75.2,75.2,29.84,SSW,213,8.7,8.7,100,0.00,,,0.00,VWS V14.01,2013-08-06 13:07:00,
2013-08-06 08:08:00,75.2,75.2,29.84,South,186,5.4,5.4,100,0.00,,,0.00,VWS V14.01,2013-08-06 13:08:00,
2013-08-06 08:10:00,75.2,75.2,29.84,South,180,5.4,5.4,100,0.00,,,0.00,VWS V14.01,2013-08-06 13:10:00,
2013-08-06 08:13:00,75.4,75.4,29.81,SSE,163,4.9,6.3,100,0.00,,,0.00,VWS V14.01,2013-08-06 13:13:00,
2013-08-06 08:14:00,75.4,75.4,29.81,South,185,4.9,5.4,100,0.00,,,0.00,VWS V14.01,2013-08-06 13:14:00,
2013-08-06 08:15:00,75.4,75.4,29.81,SSE,155,3.1,5.4,100,0.00,,,0.00,VWS V14.01,2013-08-06 13:15:00,
2013-08-06 08:18:00,75.7,75.8,29.81,SSE,164,5.4,5.4,100,0.00,,,0.00,VWS V14.01,2013-08-06 13:18:00,
2013-08-06 08:20:00,75.7,75.8,29.81,SSW,195,5.4,5.4,100,0.00,,,0.00,VWS V14.01,2013-08-06 13:20:00,
2013-08-06 08:21:00,75.7,75.8,29.81,SSW,201,3.1,4.0,100,0.00,,,0.00,VWS V14.01,2013-08-06 13:21:00,
2013-08-06 08:24:00,75.9,75.9,29.81,South,170,3.1,3.6,100,0.00,,,0.00,VWS V14.01,2013-08-06 13:24:00,
2013-08-06 08:26:00,76.1,76.1,29.81,SSW,203,2.7,3.6,100,0.00,,,0.00,VWS V14.01,2013-08-06 13:26:00,
2013-08-06 08:27:00,76.3,76.3,29.84,SSW,194,3.1,3.1,100,0.00,,,0.00,VWS V14.01,2013-08-06 13:27:00,
2013-08-06 08:29:00,76.5,76.5,29.84,SSW,198,3.6,4.9,100,0.00,,,0.00,VWS V14.01,2013-08-06 13:29:00,
2013-08-06 08:31:00,76.6,76.7,29.84,SSE,168,3.6,3.6,100,0.00,,,0.00,VWS V14.01,2013-08-06 13:31:00,
2013-08-06 08:32:00,76.8,76.8,29.84,SSE,168,0.0,3.6,100,0.00,,,0.00,VWS V14.01,2013-08-06 13:32:00,
2013-08-06 08:33:00,77.0,77.0,29.84,SSE,168,0.0,0.0,100,0.00,,,0.00,VWS V14.01,2013-08-06 13:33:00,
2013-08-06 08:34:00,77.0,77.0,29.84,SSE,168,0.0,0.0,100,0.00,,,0.00,VWS V14.01,2013-08-06 13:34:00,
2013-08-06 08:37:00,77.2,77.2,29.84,SSW,200,4.0,4.0,100,0.00,,,0.00,VWS V14.01,2013-08-06 13:37:00,
2013-08-06 08:39:00,77.4,77.4,29.84,SSW,196,4.5,4.9,100,0.00,,,0.00,VWS V14.01,2013-08-06 13:39:00,
2013-08-06 08:41:00,77.4,77.4,29.84,South,180,4.0,4.9,100,0.00,,,0.00,VWS V14.01,2013-08-06 13:41:00,
2013-08-06 08:42:00,77.5,77.6,29.84,South,187,2.7,2.7,100,0.00,,,0.00,VWS V14.01,2013-08-06 13:42:00,
2013-08-06 08:44:00,77.5,77.6,29.84,SW,214,3.6,4.5,100,0.00,,,0.00,VWS V14.01,2013-08-06 13:44:00,
2013-08-06 08:46:00,77.7,77.7,29.84,WSW,251,2.7,3.1,100,0.00,,,0.00,VWS V14.01,2013-08-06 13:46:00,
2013-08-06 08:48:00,77.9,77.9,29.84,WSW,250,3.6,3.6,100,0.00,,,0.00,VWS V14.01,2013-08-06 13:48:00,
2013-08-06 08:49:00,77.9,77.9,29.84,WSW,250,2.7,3.6,100,0.00,,,0.00,VWS V14.01,2013-08-06 13:49:00,
2013-08-06 08:50:00,78.1,78.1,29.84,WSW,249,0.0,2.7,100,0.00,,,0.00,VWS V14.01,2013-08-06 13:50:00,
2013-08-06 08:52:00,78.3,78.3,29.84,SSW,201,2.2,2.7,100,0.00,,,0.00,VWS V14.01,2013-08-06 13:52:00,
2013-08-06 08:54:00,78.4,78.4,29.84,SSW,200,0.0,0.0,100,0.00,,,0.00,VWS V14.01,2013-08-06 13:54:00,
2013-08-06 08:55:00,78.6,78.6,29.84,SSW,200,0.0,0.0,100,0.00,,,0.00,VWS V14.01,2013-08-06 13:55:00,
2013-08-06 08:56:00,78.8,78.8,29.84,SSW,207,0.0,0.0,100,0.00,,,0.00,VWS V14.01,2013-08-06 13:56:00,
2013-08-06 08:57:00,79.0,79.0,29.81,SW,215,0.0,0.0,100,0.00,,,0.00,VWS V14.01,2013-08-06 13:57:00,
2013-08-06 08:59:00,79.2,79.2,29.81,SW,230,5.4,5.4,100,0.00,,,0.00,VWS V14.01,2013-08-06 13:59:00,
2013-08-06 09:00:00,79.3,79.3,29.81,SW,231,0.0,2.2,100,0.00,,,0.00,VWS V14.01,2013-08-06 14:00:00,
2013-08-06 09:03:00,79.9,79.9,29.81,SW,231,2.7,2.7,100,0.00,,,0.00,VWS V14.01,2013-08-06 14:03:00,
2013-08-06 09:04:00,80.1,80.1,29.81,SW,231,2.7,2.7,100,0.00,,,0.00,VWS V14.01,2013-08-06 14:04:00,
2013-08-06 09:06:00,80.4,80.4,29.81,SW,231,3.6,3.6,100,0.00,,,0.00,VWS V14.01,2013-08-06 14:06:00,
2013-08-06 09:08:00,80.8,80.8,29.81,SW,231,2.2,2.2,100,0.00,,,0.00,VWS V14.01,2013-08-06 14:08:00,
2013-08-06 09:09:00,80.8,80.8,29.81,SW,231,0.0,2.2,100,0.00,,,0.00,VWS V14.01,2013-08-06 14:09:00,
2013-08-06 09:10:00,81.0,81.0,29.81,SW,231,0.0,0.0,100,0.00,,,0.00,VWS V14.01,2013-08-06 14:10:00,
2013-08-06 09:11:00,81.0,81.0,29.81,SW,231,0.0,0.0,100,0.00,,,0.00,VWS V14.01,2013-08-06 14:11:00,
2013-08-06 09:12:00,81.1,81.2,29.81,SW,231,0.0,0.0,100,0.00,,,0.00,VWS V14.01,2013-08-06 14:12:00,
2013-08-06 09:15:00,81.5,81.5,29.81,SW,231,0.0,2.2,100,0.00,,,0.00,VWS V14.01,2013-08-06 14:15:00,
2013-08-06 09:16:00,81.5,81.5,29.81,SW,231,0.0,0.0,100,0.00,,,0.00,VWS V14.01,2013-08-06 14:16:00,
2013-08-06 09:17:00,81.5,81.5,29.81,SW,231,0.0,0.0,100,0.00,,,0.00,VWS V14.01,2013-08-06 14:17:00,
2013-08-06 09:20:00,81.7,81.7,29.81,SW,231,0.0,0.0,100,0.00,,,0.00,VWS V14.01,2013-08-06 14:20:00,
2013-08-06 09:21:00,81.7,81.7,29.81,SW,231,0.0,0.0,100,0.00,,,0.00,VWS V14.01,2013-08-06 14:21:00,
2013-08-06 09:22:00,81.5,78.3,29.81,SW,231,0.0,0.0,90,0.00,,,0.00,VWS V14.01,2013-08-06 14:22:00,
2013-08-06 09:24:00,81.3,76.7,29.81,SW,231,0.0,0.0,86,0.00,,,0.00,VWS V14.01,2013-08-06 14:24:00,
2013-08-06 09:26:00,81.3,78.1,29.81,SW,231,0.0,0.0,90,0.00,,,0.00,VWS V14.01,2013-08-06 14:26:00,
2013-08-06 09:27:00,81.3,78.1,29.78,SW,231,0.0,0.0,90,0.00,,,0.00,VWS V14.01,2013-08-06 14:27:00,
2013-08-06 09:28:00,81.3,78.8,29.78,SW,231,0.0,0.0,92,0.00,,,0.00,VWS V14.01,2013-08-06 14:28:00,
2013-08-06 09:29:00,81.3,78.8,29.78,SW,231,0.0,0.0,92,0.00,,,0.00,VWS V14.01,2013-08-06 14:29:00,
2013-08-06 09:31:00,81.7,78.5,29.78,SSW,203,2.2,3.6,90,0.00,,,0.00,VWS V14.01,2013-08-06 14:31:00,
2013-08-06 09:32:00,81.9,78.6,29.78,SSE,157,4.9,4.9,90,0.00,,,0.00,VWS V14.01,2013-08-06 14:32:00,
2013-08-06 09:34:00,82.0,78.8,29.78,SSE,156,2.2,2.2,90,0.00,,,0.00,VWS V14.01,2013-08-06 14:34:00,
2013-08-06 09:37:00,82.2,75.4,29.78,SSE,156,0.0,0.0,80,0.00,,,0.00,VWS V14.01,2013-08-06 14:37:00,
2013-08-06 09:40:00,82.9,76.1,29.78,SSE,156,0.0,0.0,80,0.00,,,0.00,VWS V14.01,2013-08-06 14:40:00,
2013-08-06 09:42:00,83.5,76.7,29.78,ENE,78,0.0,0.0,80,0.00,,,0.00,VWS V14.01,2013-08-06 14:42:00,
2013-08-06 09:43:00,82.8,73.6,29.78,NE,52,3.6,3.6,74,0.00,,,0.00,VWS V14.01,2013-08-06 14:43:00,
2013-08-06 09:46:00,82.9,60.0,29.78,NNE,15,2.2,5.8,46,0.00,,,0.00,VWS V14.01,2013-08-06 14:46:00,
2013-08-06 09:48:00,82.8,59.9,29.78,NNE,20,5.4,5.4,46,0.00,,,0.00,VWS V14.01,2013-08-06 14:48:00,
2013-08-06 09:49:00,82.6,59.7,29.78,NNE,17,5.4,6.3,46,0.00,,,0.00,VWS V14.01,2013-08-06 14:49:00,
2013-08-06 09:50:00,82.6,59.7,29.78,NNE,12,5.4,6.3,46,0.00,,,0.00,VWS V14.01,2013-08-06 14:50:00,
2013-08-06 09:51:00,82.4,58.3,29.78,NNE,13,2.7,3.6,44,0.00,,,0.00,VWS V14.01,2013-08-06 14:51:00,
2013-08-06 09:53:00,82.2,60.6,29.78,NE,41,5.4,5.8,48,0.00,,,0.00,VWS V14.01,2013-08-06 14:53:00,
2013-08-06 09:54:00,82.2,60.6,29.78,NE,34,4.0,5.8,48,0.00,,,0.00,VWS V14.01,2013-08-06 14:54:00,
2013-08-06 09:56:00,81.9,59.1,29.78,NNE,18,3.1,5.4,46,0.00,,,0.00,VWS V14.01,2013-08-06 14:56:00,
2013-08-06 09:57:00,82.0,59.2,29.78,NNE,31,4.0,4.0,46,0.00,,,0.00,VWS V14.01,2013-08-06 14:57:00,
2013-08-06 09:59:00,82.0,60.4,29.78,North,11,4.9,6.7,48,0.00,,,0.00,VWS V14.01,2013-08-06 14:59:00,
2013-08-06 10:00:00,82.0,60.4,29.78,NNE,25,5.8,5.8,48,0.00,,OVC004,0.00,VWS V14.01,2013-08-06 15:00:00,
2013-08-06 10:01:00,82.0,60.4,29.78,NE,46,5.4,5.8,48,0.00,,OVC004,0.00,VWS V14.01,2013-08-06 15:01:00,
2013-08-06 10:02:00,82.0,60.4,29.78,NNE,20,6.7,6.7,48,0.00,,OVC004,0.00,VWS V14.01,2013-08-06 15:02:00,
2013-08-06 10:04:00,82.4,59.6,29.78,NE,36,4.9,6.3,46,0.00,,OVC004,0.00,VWS V14.01,2013-08-06 15:04:00,
2013-08-06 10:06:00,82.4,60.8,29.78,NNE,12,2.7,3.1,48,0.00,,OVC004,0.00,VWS V14.01,2013-08-06 15:06:00,
2013-08-06 10:07:00,82.4,60.8,29.78,NNE,12,0.0,3.1,48,0.00,,OVC004,0.00,VWS V14.01,2013-08-06 15:07:00,
2013-08-06 10:08:00,82.8,61.1,29.78,NNE,22,2.7,2.7,48,0.00,,OVC004,0.00,VWS V14.01,2013-08-06 15:08:00,
2013-08-06 10:09:00,82.9,61.2,29.78,NNE,32,3.1,3.1,48,0.00,,OVC004,0.00,VWS V14.01,2013-08-06 15:09:00,
2013-08-06 10:10:00,83.3,61.6,29.78,NNE,32,0.0,3.1,48,0.00,,OVC004,0.00,VWS V14.01,2013-08-06 15:10:00,
2013-08-06 10:12:00,83.5,60.5,29.81,NNE,28,0.0,0.0,46,0.00,,OVC004,0.00,VWS V14.01,2013-08-06 15:12:00,
2013-08-06 10:13:00,84.0,61.0,29.81,NNE,32,0.0,0.0,46,0.00,,OVC004,0.00,VWS V14.01,2013-08-06 15:13:00,
2013-08-06 10:14:00,84.4,60.1,29.81,NNE,33,0.0,0.0,44,0.00,,OVC004,0.00,VWS V14.01,2013-08-06 15:14:00,
2013-08-06 10:15:00,84.6,60.3,29.81,ENE,73,0.0,0.0,44,0.00,,OVC004,0.00,VWS V14.01,2013-08-06 15:15:00,
2013-08-06 10:17:00,85.1,58.1,29.81,ENE,75,0.0,0.0,40,0.00,,OVC004,0.00,VWS V14.01,2013-08-06 15:17:00,
2013-08-06 10:18:00,85.5,58.4,29.81,East,88,2.2,2.2,40,0.00,,OVC004,0.00,VWS V14.01,2013-08-06 15:18:00,
2013-08-06 10:19:00,86.0,57.5,29.81,East,97,0.0,2.7,38,0.00,,OVC004,0.00,VWS V14.01,2013-08-06 15:19:00,
2013-08-06 10:20:00,86.4,57.8,29.81,East,98,0.0,2.7,38,0.00,,OVC004,0.00,VWS V14.01,2013-08-06 15:20:00,
2013-08-06 10:23:00,87.3,58.6,29.81,South,188,0.0,0.0,38,0.00,,OVC004,0.00,VWS V14.01,2013-08-06 15:23:00,
2013-08-06 10:25:00,87.3,57.1,29.81,South,188,0.0,0.0,36,0.00,,OVC004,0.00,VWS V14.01,2013-08-06 15:25:00,
2013-08-06 10:27:00,87.1,53.7,29.81,WNW,294,2.2,2.7,32,0.00,,OVC004,0.00,VWS V14.01,2013-08-06 15:27:00,
2013-08-06 10:28:00,86.7,53.4,29.81,North,353,0.0,2.2,32,0.00,,OVC004,0.00,VWS V14.01,2013-08-06 15:28:00,
2013-08-06 10:30:00,86.4,53.0,29.81,NNE,24,0.0,0.0,32,0.00,,OVC004,0.00,VWS V14.01,2013-08-06 15:30:00,
2013-08-06 10:31:00,86.2,56.1,29.81,NNE,20,0.0,0.0,36,0.00,,BKN006,0.00,VWS V14.01,2013-08-06 15:31:00,
2013-08-06 10:33:00,85.8,55.8,29.81,NNE,22,0.0,3.1,36,0.00,,BKN006,0.00,VWS V14.01,2013-08-06 15:33:00,
2013-08-06 10:34:00,85.8,55.8,29.81,NNE,22,0.0,3.1,36,0.00,,BKN006,0.00,VWS V14.01,2013-08-06 15:34:00,
2013-08-06 10:36:00,86.0,56.0,29.81,NNE,12,4.9,4.9,36,0.00,,BKN006,0.00,VWS V14.01,2013-08-06 15:36:00,
2013-08-06 10:37:00,86.0,52.7,29.81,NNE,12,2.2,4.9,32,0.00,,BKN006,0.00,VWS V14.01,2013-08-06 15:37:00,
2013-08-06 10:39:00,86.2,56.1,29.81,NE,37,3.6,4.9,36,0.00,,BKN006,0.00,VWS V14.01,2013-08-06 15:39:00,
2013-08-06 10:40:00,86.0,52.7,29.81,NE,36,0.0,3.6,32,0.00,,BKN006,0.00,VWS V14.01,2013-08-06 15:40:00,
2013-08-06 10:41:00,85.8,52.6,29.81,NE,36,0.0,3.1,32,0.00,,BKN006,0.00,VWS V14.01,2013-08-06 15:41:00,
2013-08-06 10:42:00,85.8,52.6,29.81,NE,36,0.0,3.1,32,0.00,,BKN006,0.00,VWS V14.01,2013-08-06 15:42:00,
2013-08-06 10:44:00,85.6,52.4,29.81,NE,36,0.0,0.0,32,0.00,,BKN006,0.00,VWS V14.01,2013-08-06 15:44:00,
2013-08-06 10:46:00,85.8,52.6,29.81,NE,36,0.0,0.0,32,0.00,,BKN006,0.00,VWS V14.01,2013-08-06 15:46:00,
2013-08-06 10:47:00,85.8,52.6,29.81,NE,36,0.0,0.0,32,0.00,,BKN006,0.00,VWS V14.01,2013-08-06 15:47:00,
2013-08-06 10:49:00,86.2,52.9,29.81,NE,36,0.0,0.0,32,0.00,,BKN006,0.00,VWS V14.01,2013-08-06 15:49:00,
2013-08-06 10:51:00,86.5,53.2,29.81,NE,36,0.0,0.0,32,0.00,,BKN006,0.00,VWS V14.01,2013-08-06 15:51:00,
2013-08-06 10:52:00,86.7,53.4,29.81,NE,36,0.0,0.0,32,0.00,,BKN006,0.00,VWS V14.01,2013-08-06 15:52:00,
2013-08-06 10:53:00,87.1,53.7,29.81,NE,36,0.0,0.0,32,0.00,,BKN006,0.00,VWS V14.01,2013-08-06 15:53:00,
2013-08-06 10:54:00,87.1,53.7,29.81,NE,36,0.0,0.0,32,0.00,,BKN006,0.00,VWS V14.01,2013-08-06 15:54:00,
2013-08-06 10:56:00,87.3,53.8,29.81,NE,36,0.0,0.0,32,0.00,,BKN006,0.00,VWS V14.01,2013-08-06 15:56:00,
2013-08-06 10:57:00,87.4,54.0,29.81,NE,36,0.0,0.0,32,0.00,,BKN006,0.00,VWS V14.01,2013-08-06 15:57:00,
2013-08-06 10:58:00,87.4,54.0,29.81,NE,36,0.0,0.0,32,0.00,,BKN006,0.00,VWS V14.01,2013-08-06 15:58:00,
2013-08-06 11:01:00,87.3,48.2,29.81,NE,36,0.0,0.0,26,0.00,,BKN006,0.00,VWS V14.01,2013-08-06 16:01:00,
2013-08-06 11:02:00,87.3,48.2,29.81,NNE,33,0.0,2.2,26,0.00,,BKN006,0.00,VWS V14.01,2013-08-06 16:02:00,
2013-08-06 11:03:00,87.3,48.2,29.81,NNE,33,2.2,2.2,26,0.00,,BKN006,0.00,VWS V14.01,2013-08-06 16:03:00,
2013-08-06 11:06:00,87.1,48.1,29.81,NNE,33,0.0,0.0,26,0.00,,BKN006,0.00,VWS V14.01,2013-08-06 16:06:00,
2013-08-06 11:07:00,87.1,48.1,29.81,NE,35,0.0,0.0,26,0.00,,BKN006,0.00,VWS V14.01,2013-08-06 16:07:00,
2013-08-06 11:08:00,87.3,48.2,29.81,South,186,2.2,3.1,26,0.00,,BKN006,0.00,VWS V14.01,2013-08-06 16:08:00,
2013-08-06 11:11:00,87.4,48.4,29.81,SSE,159,3.6,3.6,26,0.00,,BKN006,0.00,VWS V14.01,2013-08-06 16:11:00,
2013-08-06 11:13:00,87.6,48.5,29.78,SSE,155,2.2,2.7,26,0.00,,BKN006,0.00,VWS V14.01,2013-08-06 16:13:00,
2013-08-06 11:16:00,88.0,48.8,29.78,SSE,155,0.0,0.0,26,0.00,,BKN006,0.00,VWS V14.01,2013-08-06 16:16:00,
2013-08-06 11:17:00,88.0,48.8,29.78,SSE,155,0.0,0.0,26,0.00,,BKN006,0.00,VWS V14.01,2013-08-06 16:17:00,
2013-08-06 11:18:00,88.0,48.8,29.78,SSE,155,0.0,0.0,26,0.00,,BKN006,0.00,VWS V14.01,2013-08-06 16:18:00,
2013-08-06 11:19:00,88.0,48.8,29.78,SSE,155,0.0,0.0,26,0.00,,BKN006,0.00,VWS V14.01,2013-08-06 16:19:00,
2013-08-06 11:21:00,87.8,48.7,29.78,SSE,155,0.0,0.0,26,0.00,,BKN006,0.00,VWS V14.01,2013-08-06 16:21:00,
2013-08-06 11:23:00,88.0,48.8,29.78,SSE,155,0.0,0.0,26,0.00,,BKN006,0.00,VWS V14.01,2013-08-06 16:23:00,
2013-08-06 11:24:00,88.0,48.8,29.78,SSE,155,0.0,0.0,26,0.00,,BKN006,0.00,VWS V14.01,2013-08-06 16:24:00,
2013-08-06 11:27:00,88.5,49.3,29.78,SSE,155,0.0,0.0,26,0.00,,BKN006,0.00,VWS V14.01,2013-08-06 16:27:00,
2013-08-06 11:28:00,88.7,49.5,29.78,SSE,155,0.0,0.0,26,0.00,,BKN006,0.00,VWS V14.01,2013-08-06 16:28:00,
2013-08-06 11:29:00,88.9,49.6,29.78,SSE,155,0.0,0.0,26,0.00,,BKN006,0.00,VWS V14.01,2013-08-06 16:29:00,
2013-08-06 11:30:00,89.2,49.9,29.78,SSE,155,0.0,0.0,26,0.00,,BKN006,0.00,VWS V14.01,2013-08-06 16:30:00,
2013-08-06 11:32:00,89.2,49.9,29.78,ESE,118,0.0,3.6,26,0.00,,BKN006,0.00,VWS V14.01,2013-08-06 16:32:00,
2013-08-06 11:33:00,89.2,49.9,29.78,SSW,210,2.7,2.7,26,0.00,,BKN006,0.00,VWS V14.01,2013-08-06 16:33:00,
2013-08-06 11:34:00,89.2,49.9,29.78,SSW,213,3.6,3.6,26,0.00,,BKN006,0.00,VWS V14.01,2013-08-06 16:34:00,
2013-08-06 11:35:00,89.1,49.8,29.78,SW,217,3.6,3.6,26,0.00,,BKN006,0.00,VWS V14.01,2013-08-06 16:35:00,
2013-08-06 11:39:00,88.7,49.5,29.78,SW,226,5.4,5.8,26,0.00,,BKN006,0.00,VWS V14.01,2013-08-06 16:39:00,
2013-08-06 11:40:00,88.7,49.5,29.78,SSW,208,5.8,5.8,26,0.00,,BKN006,0.00,VWS V14.01,2013-08-06 16:40:00,
2013-08-06 11:45:00,88.2,49.0,29.78,SSW,200,4.0,6.3,26,0.00,,BKN006,0.00,VWS V14.01,2013-08-06 16:45:00,
2013-08-06 11:46:00,88.3,49.1,29.78,SSW,207,5.8,5.8,26,0.00,,BKN006,0.00,VWS V14.01,2013-08-06 16:46:00,
2013-08-06 11:50:00,87.8,48.7,29.78,SW,235,5.4,6.3,26,0.00,,BKN006,0.00,VWS V14.01,2013-08-06 16:50:00,
2013-08-06 11:51:00,87.6,48.5,29.78,West,279,3.1,5.4,26,0.00,,BKN006,0.00,VWS V14.01,2013-08-06 16:51:00,
2013-08-06 11:52:00,87.8,48.7,29.78,West,275,3.1,4.0,26,0.00,,BKN006,0.00,VWS V14.01,2013-08-06 16:52:00,
2013-08-06 11:56:00,87.6,48.5,29.78,SW,233,5.4,5.4,26,0.00,,BKN006,0.00,VWS V14.01,2013-08-06 16:56:00,
2013-08-06 11:57:00,87.4,48.4,29.78,SW,225,4.9,5.4,26,0.00,,BKN006,0.00,VWS V14.01,2013-08-06 16:57:00,
2013-08-06 11:58:00,87.4,48.4,29.78,SW,224,3.6,5.4,26,0.00,,BKN006,0.00,VWS V14.01,2013-08-06 16:58:00,
2013-08-06 12:01:00,87.6,48.5,29.78,SW,218,4.9,4.9,26,0.00,,BKN006,0.00,VWS V14.01,2013-08-06 17:01:00,
2013-08-06 12:03:00,88.2,49.0,29.78,ESE,114,0.0,3.1,26,0.00,,BKN006,0.00,VWS V14.01,2013-08-06 17:03:00,
2013-08-06 12:04:00,88.3,49.1,29.78,WSW,258,2.7,2.7,26,0.00,,BKN006,0.00,VWS V14.01,2013-08-06 17:04:00,
2013-08-06 12:06:00,88.9,49.6,29.78,WSW,239,2.7,3.1,26,0.00,,BKN006,0.00,VWS V14.01,2013-08-06 17:06:00,
2013-08-06 12:07:00,89.1,49.8,29.78,WSW,248,4.0,4.0,26,0.00,,BKN006,0.00,VWS V14.01,2013-08-06 17:07:00,
2013-08-06 12:08:00,89.2,49.9,29.78,SW,226,4.0,5.4,26,0.00,,BKN006,0.00,VWS V14.01,2013-08-06 17:08:00,
2013-08-06 12:09:00,89.2,49.9,29.78,SSW,197,5.4,5.8,26,0.00,,BKN006,0.00,VWS V14.01,2013-08-06 17:09:00,
2013-08-06 12:11:00,89.2,43.0,29.78,South,172,0.0,2.7,20,0.00,,BKN006,0.00,VWS V14.01,2013-08-06 17:11:00,
2013-08-06 12:12:00,89.2,43.0,29.78,South,172,0.0,2.7,20,0.00,,BKN006,0.00,VWS V14.01,2013-08-06 17:12:00,
2013-08-06 12:14:00,89.4,50.0,29.78,South,175,0.0,0.0,26,0.00,,BKN006,0.00,VWS V14.01,2013-08-06 17:14:00,
2013-08-06 12:16:00,89.6,48.1,29.78,WSW,239,4.0,4.0,24,0.00,,BKN006,0.00,VWS V14.01,2013-08-06 17:16:00,
2013-08-06 12:17:00,89.6,43.3,29.78,WSW,239,2.2,4.0,20,0.00,,BKN006,0.00,VWS V14.01,2013-08-06 17:17:00,
2013-08-06 12:20:00,90.0,43.5,29.78,WSW,239,0.0,0.0,20,0.00,,BKN006,0.00,VWS V14.01,2013-08-06 17:20:00,
2013-08-06 12:21:00,90.0,43.5,29.78,WSW,239,0.0,0.0,20,0.00,,BKN006,0.00,VWS V14.01,2013-08-06 17:21:00,
2013-08-06 12:22:00,90.0,43.5,29.78,South,187,2.7,4.0,20,0.00,,BKN006,0.00,VWS V14.01,2013-08-06 17:22:00,
2013-08-06 12:23:00,90.0,43.5,29.78,South,170,3.1,5.8,20,0.00,,BKN006,0.00,VWS V14.01,2013-08-06 17:23:00,
2013-08-06 12:25:00,90.0,43.5,29.78,SW,225,4.9,5.8,20,0.00,,BKN006,0.00,VWS V14.01,2013-08-06 17:25:00,
2013-08-06 12:26:00,90.0,43.5,29.78,SW,220,4.9,5.4,20,0.00,,BKN006,0.00,VWS V14.01,2013-08-06 17:26:00,
2013-08-06 12:27:00,89.8,43.4,29.78,SW,227,5.8,5.8,20,0.00,,BKN006,0.00,VWS V14.01,2013-08-06 17:27:00,
2013-08-06 12:29:00,89.6,43.3,29.78,SW,214,3.6,4.0,20,0.00,,BKN006,0.00,VWS V14.01,2013-08-06 17:29:00,
2013-08-06 12:31:00,89.6,43.3,29.78,West,270,3.1,5.8,20,0.00,,BKN006,0.00,VWS V14.01,2013-08-06 17:31:00,
2013-08-06 12:32:00,89.6,43.3,29.78,SW,224,5.8,5.8,20,0.00,,BKN006,0.00,VWS V14.01,2013-08-06 17:32:00,
2013-08-06 12:33:00,89.8,43.4,29.78,SW,221,2.2,5.8,20,0.00,,BKN006,0.00,VWS V14.01,2013-08-06 17:33:00,
2013-08-06 12:34:00,89.8,43.4,29.78,WSW,240,5.8,6.3,20,0.00,,BKN006,0.00,VWS V14.01,2013-08-06 17:34:00,
2013-08-06 12:36:00,89.8,43.4,29.78,West,265,4.9,4.9,20,0.00,,BKN006,0.00,VWS V14.01,2013-08-06 17:36:00,
2013-08-06 12:37:00,89.6,43.3,29.78,WSW,245,3.6,4.9,20,0.00,,BKN006,0.00,VWS V14.01,2013-08-06 17:37:00,
2013-08-06 12:39:00,89.6,43.3,29.78,WSW,247,6.3,6.3,20,0.00,,BKN006,0.00,VWS V14.01,2013-08-06 17:39:00,
2013-08-06 12:41:00,89.2,43.0,29.78,WSW,251,4.5,5.8,20,0.00,,BKN006,0.00,VWS V14.01,2013-08-06 17:41:00,
2013-08-06 12:43:00,89.4,43.1,29.78,WSW,253,5.4,5.4,20,0.00,,BKN006,0.00,VWS V14.01,2013-08-06 17:43:00,
2013-08-06 12:44:00,89.6,48.1,29.78,WSW,250,5.4,5.4,24,0.00,,BKN006,0.00,VWS V14.01,2013-08-06 17:44:00,
2013-08-06 12:46:00,90.1,48.5,29.78,WSW,254,4.0,6.3,24,0.00,,BKN006,0.00,VWS V14.01,2013-08-06 17:46:00,
2013-08-06 12:47:00,90.3,48.7,29.78,SW,235,5.8,5.8,24,0.00,,BKN006,0.00,VWS V14.01,2013-08-06 17:47:00,
2013-08-06 12:49:00,90.9,44.3,29.78,WSW,238,4.0,4.9,20,0.00,,BKN006,0.00,VWS V14.01,2013-08-06 17:49:00,
2013-08-06 12:50:00,90.9,44.3,29.78,SW,225,3.6,3.6,20,0.00,,BKN006,0.00,VWS V14.01,2013-08-06 17:50:00,
2013-08-06 12:52:00,90.9,44.3,29.78,SW,225,6.3,6.3,20,0.00,,BKN006,0.00,VWS V14.01,2013-08-06 17:52:00,
2013-08-06 12:53:00,90.9,44.3,29.78,SW,225,5.4,6.3,20,0.00,,BKN006,0.00,VWS V14.01,2013-08-06 17:53:00,
2013-08-06 12:54:00,90.7,44.1,29.78,SW,226,4.0,5.4,20,0.00,,BKN006,0.00,VWS V14.01,2013-08-06 17:54:00,
2013-08-06 12:55:00,90.5,44.0,29.78,WSW,240,3.6,4.0,20,0.00,,BKN006,0.00,VWS V14.01,2013-08-06 17:55:00,
2013-08-06 12:56:00,90.1,43.7,29.78,West,261,2.7,4.0,20,0.00,,BKN006,0.00,VWS V14.01,2013-08-06 17:56:00,
2013-08-06 12:58:00,89.8,43.4,29.78,West,269,4.0,4.0,20,0.00,,BKN006,0.00,VWS V14.01,2013-08-06 17:58:00,
2013-08-06 12:59:00,89.8,43.4,29.78,West,269,0.0,4.0,20,0.00,,BKN006,0.00,VWS V14.01,2013-08-06 17:59:00,
2013-08-06 13:02:00,89.2,43.0,29.78,West,266,2.7,2.7,20,0.00,,BKN006,0.00,VWS V14.01,2013-08-06 18:02:00,
2013-08-06 13:03:00,89.2,43.0,29.78,West,266,0.0,0.0,20,0.00,,BKN006,0.00,VWS V14.01,2013-08-06 18:03:00,
2013-08-06 13:04:00,89.2,43.0,29.78,West,266,0.0,0.0,20,0.00,,BKN006,0.00,VWS V14.01,2013-08-06 18:04:00,
2013-08-06 13:05:00,89.2,43.0,29.78,SE,145,0.0,2.7,20,0.00,,BKN006,0.00,VWS V14.01,2013-08-06 18:05:00,
2013-08-06 13:08:00,89.4,43.1,29.78,SSE,165,4.5,4.5,20,0.00,,BKN006,0.00,VWS V14.01,2013-08-06 18:08:00,
2013-08-06 13:09:00,89.6,43.3,29.78,SSW,212,4.0,5.4,20,0.00,,BKN006,0.00,VWS V14.01,2013-08-06 18:09:00,
2013-08-06 13:10:00,89.8,43.4,29.78,SSE,150,4.9,5.4,20,0.00,,BKN006,0.00,VWS V14.01,2013-08-06 18:10:00,
2013-08-06 13:14:00,89.8,43.4,29.78,South,189,4.9,4.9,20,0.00,,BKN006,0.00,VWS V14.01,2013-08-06 18:14:00,
2013-08-06 13:15:00,89.8,43.4,29.78,SSW,198,4.5,5.4,20,0.00,,BKN006,0.00,VWS V14.01,2013-08-06 18:15:00,
2013-08-06 13:16:00,90.1,43.7,29.78,SW,225,5.4,6.7,20,0.00,,BKN006,0.00,VWS V14.01,2013-08-06 18:16:00,
2013-08-06 13:19:00,90.7,44.1,29.78,South,182,6.3,7.6,20,0.00,,BKN006,0.00,VWS V14.01,2013-08-06 18:19:00,
2013-08-06 13:20:00,90.7,44.1,29.78,SSW,208,5.8,5.8,20,0.00,,BKN006,0.00,VWS V14.01,2013-08-06 18:20:00,
2013-08-06 13:21:00,90.5,44.0,29.78,SSW,205,5.4,5.4,20,0.00,,BKN006,0.00,VWS V14.01,2013-08-06 18:21:00,
2013-08-06 13:22:00,90.0,43.5,29.78,SSW,199,6.3,6.3,20,0.00,,BKN006,0.00,VWS V14.01,2013-08-06 18:22:00,
2013-08-06 13:25:00,90.0,43.5,29.78,South,182,4.9,5.8,20,0.00,,BKN006,0.00,VWS V14.01,2013-08-06 18:25:00,
2013-08-06 13:27:00,90.0,43.5,29.78,SSW,213,4.9,5.8,20,0.00,,BKN006,0.00,VWS V14.01,2013-08-06 18:27:00,
2013-08-06 13:28:00,90.0,43.5,29.78,SSW,206,3.1,5.8,20,0.00,,BKN006,0.00,VWS V14.01,2013-08-06 18:28:00,
2013-08-06 13:30:00,90.3,43.8,29.78,SSE,150,5.4,6.3,20,0.00,,BKN006,0.00,VWS V14.01,2013-08-06 18:30:00,
2013-08-06 13:31:00,90.5,44.0,29.78,SSE,168,5.4,6.7,20,0.00,,BKN006,0.00,VWS V14.01,2013-08-06 18:31:00,
2013-08-06 13:33:00,90.7,44.1,29.78,South,175,5.8,5.8,20,0.00,,BKN006,0.00,VWS V14.01,2013-08-06 18:33:00,
2013-08-06 13:34:00,90.9,44.3,29.78,SE,136,0.0,3.6,20,0.00,,BKN006,0.00,VWS V14.01,2013-08-06 18:34:00,
2013-08-06 13:36:00,91.0,44.4,29.78,SW,223,3.1,5.8,20,0.00,,BKN006,0.00,VWS V14.01,2013-08-06 18:36:00,
2013-08-06 13:37:00,91.0,44.4,29.78,SSW,199,7.2,8.1,20,0.00,,BKN006,0.00,VWS V14.01,2013-08-06 18:37:00,
2013-08-06 13:39:00,91.0,44.4,29.78,SE,134,2.7,5.4,20,0.00,,BKN006,0.00,VWS V14.01,2013-08-06 18:39:00,
2013-08-06 13:42:00,91.0,44.4,29.78,SE,127,3.6,5.4,20,0.00,,BKN006,0.00,VWS V14.01,2013-08-06 18:42:00,
2013-08-06 13:44:00,91.2,44.6,29.78,SSE,167,4.5,5.4,20,0.00,,BKN006,0.00,VWS V14.01,2013-08-06 18:44:00,
2013-08-06 13:45:00,91.0,44.4,29.78,South,175,2.7,4.5,20,0.00,,BKN006,0.00,VWS V14.01,2013-08-06 18:45:00,
2013-08-06 13:47:00,90.9,44.3,29.78,SSE,164,8.1,8.1,20,0.00,,BKN006,0.00,VWS V14.01,2013-08-06 18:47:00,
2013-08-06 13:48:00,90.9,44.3,29.78,SSW,196,4.0,8.1,20,0.00,,BKN006,0.00,VWS V14.01,2013-08-06 18:48:00,
2013-08-06 13:49:00,91.0,44.4,29.78,South,177,6.3,6.3,20,0.00,,BKN006,0.00,VWS V14.01,2013-08-06 18:49:00,
2013-08-06 13:51:00,90.9,44.3,29.78,SSE,168,5.8,5.8,20,0.00,,BKN006,0.00,VWS V14.01,2013-08-06 18:51:00,
2013-08-06 13:53:00,90.9,44.3,29.78,SSE,154,8.7,9.6,20,0.00,,BKN006,0.00,VWS V14.01,2013-08-06 18:53:00,
2013-08-06 13:54:00,90.9,44.3,29.78,South,170,5.4,6.3,20,0.00,,BKN006,0.00,VWS V14.01,2013-08-06 18:54:00,
2013-08-06 13:56:00,90.9,44.3,29.78,SW,224,6.3,6.3,20,0.00,,BKN006,0.00,VWS V14.01,2013-08-06 18:56:00,
2013-08-06 13:57:00,90.9,44.3,29.78,SSW,200,4.0,6.3,20,0.00,,BKN006,0.00,VWS V14.01,2013-08-06 18:57:00,
2013-08-06 14:00:00,90.7,44.1,29.78,South,173,8.1,8.1,20,0.00,,BKN006,0.00,VWS V14.01,2013-08-06 19:00:00,
2013-08-06 14:01:00,90.5,44.0,29.78,South,169,5.8,8.1,20,0.00,,FEW023,0.00,VWS V14.01,2013-08-06 19:01:00,
2013-08-06 14:02:00,90.3,43.8,29.78,SSE,157,6.3,9.2,20,0.00,,FEW023,0.00,VWS V14.01,2013-08-06 19:02:00,
2013-08-06 14:05:00,90.1,43.7,29.78,SSW,193,6.3,6.3,20,0.00,,FEW023,0.00,VWS V14.01,2013-08-06 19:05:00,
2013-08-06 14:06:00,90.0,43.5,29.78,South,175,7.6,7.6,20,0.00,,FEW023,0.00,VWS V14.01,2013-08-06 19:06:00,
2013-08-06 14:07:00,90.0,43.5,29.78,South,169,6.3,6.3,20,0.00,,FEW023,0.00,VWS V14.01,2013-08-06 19:07:00,
2013-08-06 14:08:00,89.8,43.4,29.78,SE,139,5.8,6.3,20,0.00,,FEW023,0.00,VWS V14.01,2013-08-06 19:08:00,
2013-08-06 14:09:00,89.8,43.4,29.78,SSE,168,3.1,5.4,20,0.00,,FEW023,0.00,VWS V14.01,2013-08-06 19:09:00,
2013-08-06 14:10:00,89.8,43.4,29.78,SE,139,6.3,6.3,20,0.00,,FEW023,0.00,VWS V14.01,2013-08-06 19:10:00,
2013-08-06 14:12:00,89.8,43.4,29.75,SE,138,2.7,4.0,20,0.00,,FEW023,0.00,VWS V14.01,2013-08-06 19:12:00,
2013-08-06 14:13:00,90.0,43.5,29.75,SSE,160,6.3,6.3,20,0.00,,FEW023,0.00,VWS V14.01,2013-08-06 19:13:00,
2013-08-06 14:14:00,90.0,43.5,29.75,South,186,7.6,7.6,20,0.00,,FEW023,0.00,VWS V14.01,2013-08-06 19:14:00,
2013-08-06 14:16:00,90.1,43.7,29.75,South,190,7.6,7.6,20,0.00,,FEW023,0.00,VWS V14.01,2013-08-06 19:16:00,
2013-08-06 14:17:00,90.1,43.7,29.75,SE,146,4.0,7.6,20,0.00,,FEW023,0.00,VWS V14.01,2013-08-06 19:17:00,
2013-08-06 14:18:00,90.1,43.7,29.75,SE,137,5.4,5.4,20,0.00,,FEW023,0.00,VWS V14.01,2013-08-06 19:18:00,
2013-08-06 14:19:00,90.3,43.8,29.75,SSE,151,3.1,3.6,20,0.00,,FEW023,0.00,VWS V14.01,2013-08-06 19:19:00,
2013-08-06 14:21:00,90.7,44.1,29.75,SE,145,3.6,4.0,20,0.00,,FEW023,0.00,VWS V14.01,2013-08-06 19:21:00,
2013-08-06 14:22:00,90.7,44.1,29.75,SSW,200,5.8,8.1,20,0.00,,FEW023,0.00,VWS V14.01,2013-08-06 19:22:00,
2013-08-06 14:24:00,90.9,44.3,29.75,SSE,149,4.9,8.3,20,0.00,,FEW023,0.00,VWS V14.01,2013-08-06 19:24:00,
2013-08-06 14:25:00,90.9,44.3,29.75,South,180,4.0,4.5,20,0.00,,FEW023,0.00,VWS V14.01,2013-08-06 19:25:00,
2013-08-06 14:27:00,90.9,44.3,29.78,SSE,150,5.4,5.4,20,0.00,,FEW023,0.00,VWS V14.01,2013-08-06 19:27:00,
2013-08-06 14:29:00,90.7,44.1,29.78,SSE,168,4.9,5.4,20,0.00,,FEW023,0.00,VWS V14.01,2013-08-06 19:29:00,
2013-08-06 14:32:00,90.5,44.0,29.78,SSW,200,4.0,8.1,20,0.00,,FEW023,0.00,VWS V14.01,2013-08-06 19:32:00,
2013-08-06 14:33:00,90.1,43.7,29.78,SW,222,5.4,6.3,20,0.00,,FEW023,0.00,VWS V14.01,2013-08-06 19:33:00,
2013-08-06 14:36:00,89.4,43.1,29.78,SSE,153,3.6,6.3,20,0.00,,FEW023,0.00,VWS V14.01,2013-08-06 19:36:00,
2013-08-06 14:37:00,89.4,43.1,29.78,South,191,4.0,4.0,20,0.00,,FEW023,0.00,VWS V14.01,2013-08-06 19:37:00,
2013-08-06 14:38:00,89.4,43.1,29.78,South,176,5.4,5.4,20,0.00,,FEW023,0.00,VWS V14.01,2013-08-06 19:38:00,
2013-08-06 14:40:00,89.2,43.0,29.78,SSW,203,8.1,8.1,20,0.00,,FEW023,0.00,VWS V14.01,2013-08-06 19:40:00,
2013-08-06 14:42:00,88.9,42.7,29.75,South,170,5.8,7.2,20,0.00,,FEW023,0.00,VWS V14.01,2013-08-06 19:42:00,
2013-08-06 14:43:00,88.5,42.4,29.75,SSW,192,12.8,12.8,20,0.00,,FEW023,0.00,VWS V14.01,2013-08-06 19:43:00,
2013-08-06 14:44:00,88.3,42.2,29.75,SW,221,8.3,12.8,20,0.00,,FEW023,0.00,VWS V14.01,2013-08-06 19:44:00,
2013-08-06 14:46:00,87.8,41.8,29.75,South,179,5.4,5.4,20,0.00,,FEW023,0.00,VWS V14.01,2013-08-06 19:46:00,
2013-08-06 14:47:00,87.8,41.8,29.75,South,190,7.6,7.6,20,0.00,,FEW023,0.00,VWS V14.01,2013-08-06 19:47:00,
2013-08-06 14:49:00,87.6,44.1,29.75,SSW,199,8.3,8.3,22,0.00,,FEW023,0.00,VWS V14.01,2013-08-06 19:49:00,
2013-08-06 14:50:00,87.8,41.8,29.75,SSW,195,6.3,8.1,20,0.00,,FEW023,0.00,VWS V14.01,2013-08-06 19:50:00,
2013-08-06 14:52:00,88.0,41.9,29.75,South,169,8.1,8.1,20,0.00,,FEW023,0.00,VWS V14.01,2013-08-06 19:52:00,
2013-08-06 14:55:00,88.7,42.5,29.75,SW,225,4.9,5.8,20,0.00,,FEW023,0.00,VWS V14.01,2013-08-06 19:55:00,
2013-08-06 14:56:00,89.1,42.8,29.75,SSW,213,5.8,5.8,20,0.00,,FEW023,0.00,VWS V14.01,2013-08-06 19:56:00,
2013-08-06 14:57:00,89.2,43.0,29.75,South,189,8.3,8.3,20,0.00,,FEW023,0.00,VWS V14.01,2013-08-06 19:57:00,
2013-08-06 15:01:00,90.0,43.5,29.75,SE,131,7.2,7.2,20,0.00,,FEW024,0.00,VWS V14.01,2013-08-06 20:01:00,
2013-08-06 15:02:00,90.0,43.5,29.75,SSE,167,7.2,7.2,20,0.00,,FEW024,0.00,VWS V14.01,2013-08-06 20:02:00,
2013-08-06 15:06:00,90.0,43.5,29.75,South,179,6.3,8.3,20,0.00,,FEW024,0.00,VWS V14.01,2013-08-06 20:06:00,
2013-08-06 15:08:00,90.0,43.5,29.75,SSW,200,5.4,7.6,20,0.00,,FEW024,0.00,VWS V14.01,2013-08-06 20:08:00,
2013-08-06 15:09:00,90.0,43.5,29.75,SSW,210,6.3,6.3,20,0.00,,FEW024,0.00,VWS V14.01,2013-08-06 20:09:00,
2013-08-06 15:11:00,89.4,43.1,29.75,SSW,196,5.4,5.8,20,0.00,,FEW024,0.00,VWS V14.01,2013-08-06 20:11:00,
2013-08-06 15:14:00,89.2,43.0,29.75,ESE,103,4.9,7.6,20,0.00,,FEW024,0.00,VWS V14.01,2013-08-06 20:14:00,
2013-08-06 15:15:00,89.2,43.0,29.75,South,186,2.7,5.4,20,0.00,,FEW024,0.00,VWS V14.01,2013-08-06 20:15:00,
2013-08-06 15:17:00,89.4,43.1,29.75,SSE,151,5.4,7.6,20,0.00,,FEW024,0.00,VWS V14.01,2013-08-06 20:17:00,
2013-08-06 15:19:00,89.8,43.4,29.75,South,178,5.8,7.6,20,0.00,,FEW024,0.00,VWS V14.01,2013-08-06 20:19:00,
2013-08-06 15:20:00,90.0,43.5,29.75,SSW,210,6.3,8.3,20,0.00,,FEW024,0.00,VWS V14.01,2013-08-06 20:20:00,
2013-08-06 15:22:00,90.3,43.8,29.75,SSE,166,6.3,8.7,20,0.00,,FEW024,0.00,VWS V14.01,2013-08-06 20:22:00,
2013-08-06 15:25:00,90.5,44.0,29.75,SSW,199,5.8,8.3,20,0.00,,FEW024,0.00,VWS V14.01,2013-08-06 20:25:00,
2013-08-06 15:26:00,90.3,43.8,29.75,South,184,5.8,8.1,20,0.00,,FEW024,0.00,VWS V14.01,2013-08-06 20:26:00,
2013-08-06 15:27:00,90.3,43.8,29.75,South,185,8.3,8.3,20,0.00,,FEW024,0.00,VWS V14.01,2013-08-06 20:27:00,
2013-08-06 15:28:00,90.1,43.7,29.75,SSE,157,3.1,8.3,20,0.00,,FEW024,0.00,VWS V14.01,2013-08-06 20:28:00,
2013-08-06 15:31:00,90.0,43.5,29.75,SSE,158,5.4,5.8,20,0.00,,FEW024,0.00,VWS V14.01,2013-08-06 20:31:00,
2013-08-06 15:32:00,89.8,43.4,29.75,South,185,8.3,8.3,20,0.00,,FEW024,0.00,VWS V14.01,2013-08-06 20:32:00,
2013-08-06 15:33:00,89.6,43.3,29.75,SSE,162,8.3,8.3,20,0.00,,FEW024,0.00,VWS V14.01,2013-08-06 20:33:00,
2013-08-06 15:34:00,89.6,43.3,29.75,SE,127,5.8,10.1,20,0.00,,FEW024,0.00,VWS V14.01,2013-08-06 20:34:00,
2013-08-06 15:35:00,89.6,43.3,29.75,WSW,243,7.2,8.1,20,0.00,,FEW024,0.00,VWS V14.01,2013-08-06 20:35:00,
2013-08-06 15:38:00,89.4,43.1,29.75,South,187,8.1,8.1,20,0.00,,FEW024,0.00,VWS V14.01,2013-08-06 20:38:00,
2013-08-06 15:39:00,89.4,43.1,29.75,South,170,8.3,10.1,20,0.00,,FEW024,0.00,VWS V14.01,2013-08-06 20:39:00,
2013-08-06 15:40:00,89.4,43.1,29.75,South,184,10.1,10.1,20,0.00,,FEW024,0.00,VWS V14.01,2013-08-06 20:40:00,
2013-08-06 15:41:00,89.4,43.1,29.75,South,176,8.1,8.3,20,0.00,,FEW024,0.00,VWS V14.01,2013-08-06 20:41:00,
2013-08-06 15:43:00,89.2,43.0,29.75,SSE,164,8.3,11.0,20,0.00,,FEW024,0.00,VWS V14.01,2013-08-06 20:43:00,
2013-08-06 15:44:00,89.2,43.0,29.75,SE,146,8.3,8.3,20,0.00,,FEW024,0.00,VWS V14.01,2013-08-06 20:44:00,
2013-08-06 15:45:00,89.2,43.0,29.75,SSE,152,12.3,12.3,20,0.00,,FEW024,0.00,VWS V14.01,2013-08-06 20:45:00,
2013-08-06 15:46:00,89.2,43.0,29.75,SSE,159,6.3,12.3,20,0.00,,FEW024,0.00,VWS V14.01,2013-08-06 20:46:00,
2013-08-06 15:47:00,89.4,43.1,29.75,South,173,7.6,7.6,20,0.00,,FEW024,0.00,VWS V14.01,2013-08-06 20:47:00,
2013-08-06 15:48:00,89.6,43.3,29.75,SE,144,6.7,6.7,20,0.00,,FEW024,0.00,VWS V14.01,2013-08-06 20:48:00,
2013-08-06 15:50:00,89.8,43.4,29.75,South,173,8.1,8.3,20,0.00,,FEW024,0.00,VWS V14.01,2013-08-06 20:50:00,
2013-08-06 15:51:00,89.8,43.4,29.75,South,180,11.0,11.0,20,0.00,,FEW024,0.00,VWS V14.01,2013-08-06 20:51:00,
2013-08-06 15:53:00,89.8,43.4,29.75,SSW,207,11.0,12.8,20,0.00,,FEW024,0.00,VWS V14.01,2013-08-06 20:53:00,
2013-08-06 15:54:00,89.8,43.4,29.75,SSW,201,11.9,11.9,20,0.00,,FEW024,0.00,VWS V14.01,2013-08-06 20:54:00,
2013-08-06 15:56:00,89.6,43.3,29.75,SW,221,8.3,12.8,20,0.00,,FEW024,0.00,VWS V14.01,2013-08-06 20:56:00,
2013-08-06 15:57:00,89.6,43.3,29.75,South,183,10.5,10.5,20,0.00,,FEW024,0.00,VWS V14.01,2013-08-06 20:57:00,
2013-08-06 15:59:00,89.2,43.0,29.75,South,175,10.5,10.5,20,0.00,,FEW024,0.00,VWS V14.01,2013-08-06 20:59:00,
2013-08-06 16:00:00,89.2,43.0,29.75,South,191,8.3,8.3,20,0.00,,FEW024,0.00,VWS V14.01,2013-08-06 21:00:00,
2013-08-06 16:01:00,89.1,42.8,29.75,South,183,8.1,8.1,20,0.00,,CLR,0.00,VWS V14.01,2013-08-06 21:01:00,
2013-08-06 16:02:00,89.2,43.0,29.75,South,172,9.6,9.6,20,0.00,,CLR,0.00,VWS V14.01,2013-08-06 21:02:00,
2013-08-06 16:03:00,89.2,43.0,29.75,SSE,168,11.0,11.0,20,0.00,,CLR,0.00,VWS V14.01,2013-08-06 21:03:00,
2013-08-06 16:05:00,89.4,43.1,29.75,SW,219,13.2,13.2,20,0.00,,CLR,0.00,VWS V14.01,2013-08-06 21:05:00,
2013-08-06 16:06:00,89.4,43.1,29.75,South,171,9.6,14.5,20,0.00,,CLR,0.00,VWS V14.01,2013-08-06 21:06:00,
2013-08-06 16:08:00,89.4,43.1,29.75,South,178,3.1,8.1,20,0.00,,CLR,0.00,VWS V14.01,2013-08-06 21:08:00,
2013-08-06 16:10:00,89.1,42.8,29.75,South,176,5.4,6.3,20,0.00,,CLR,0.00,VWS V14.01,2013-08-06 21:10:00,
2013-08-06 16:11:00,88.9,42.7,29.75,South,181,8.7,8.7,20,0.00,,CLR,0.00,VWS V14.01,2013-08-06 21:11:00,
2013-08-06 16:12:00,88.7,42.5,29.75,South,176,8.3,8.3,20,0.00,,CLR,0.00,VWS V14.01,2013-08-06 21:12:00,
2013-08-06 16:13:00,88.5,42.4,29.75,SW,220,7.2,7.6,20,0.00,,CLR,0.00,VWS V14.01,2013-08-06 21:13:00,
2013-08-06 16:15:00,88.3,42.2,29.75,SSW,208,8.7,8.7,20,0.00,,CLR,0.00,VWS V14.01,2013-08-06 21:15:00,
2013-08-06 16:16:00,88.2,42.1,29.75,SSW,204,5.4,6.3,20,0.00,,CLR,0.00,VWS V14.01,2013-08-06 21:16:00,
2013-08-06 16:17:00,88.2,42.1,29.75,South,187,5.8,5.8,20,0.00,,CLR,0.00,VWS V14.01,2013-08-06 21:17:00,
2013-08-06 16:19:00,88.3,42.2,29.75,SSW,193,5.8,5.8,20,0.00,,CLR,0.00,VWS V14.01,2013-08-06 21:19:00,
2013-08-06 16:21:00,88.3,42.2,29.75,South,180,8.1,8.7,20,0.00,,CLR,0.00,VWS V14.01,2013-08-06 21:21:00,
2013-08-06 16:22:00,88.2,42.1,29.75,SSE,157,8.3,8.7,20,0.00,,CLR,0.00,VWS V14.01,2013-08-06 21:22:00,
2013-08-06 16:23:00,88.2,42.1,29.75,SSE,160,8.1,10.1,20,0.00,,CLR,0.00,VWS V14.01,2013-08-06 21:23:00,
2013-08-06 16:24:00,87.8,41.8,29.75,SW,218,8.3,12.8,20,0.00,,CLR,0.00,VWS V14.01,2013-08-06 21:24:00,
2013-08-06 16:25:00,87.6,44.1,29.75,SSW,210,10.5,11.0,22,0.00,,CLR,0.00,VWS V14.01,2013-08-06 21:25:00,
2013-08-06 16:26:00,87.4,44.0,29.75,SSW,213,8.7,8.7,22,0.00,,CLR,0.00,VWS V14.01,2013-08-06 21:26:00,
2013-08-06 16:27:00,87.1,43.7,29.75,SSW,198,6.3,8.3,22,0.00,,CLR,0.00,VWS V14.01,2013-08-06 21:27:00,
2013-08-06 16:28:00,87.1,43.7,29.75,SW,223,11.0,11.0,22,0.00,,CLR,0.00,VWS V14.01,2013-08-06 21:28:00,
2013-08-06 16:29:00,86.9,43.5,29.75,South,178,6.3,8.7,22,0.00,,CLR,0.00,VWS V14.01,2013-08-06 21:29:00,
2013-08-06 16:31:00,86.9,43.5,29.75,South,178,5.8,7.2,22,0.00,,CLR,0.00,VWS V14.01,2013-08-06 21:31:00,
2013-08-06 16:33:00,87.1,43.7,29.75,SW,230,8.7,10.5,22,0.00,,CLR,0.00,VWS V14.01,2013-08-06 21:33:00,
2013-08-06 16:34:00,87.1,43.7,29.75,SSW,193,5.8,6.3,22,0.00,,CLR,0.00,VWS V14.01,2013-08-06 21:34:00,
2013-08-06 16:35:00,87.1,43.7,29.75,SW,229,8.1,8.3,22,0.00,,CLR,0.00,VWS V14.01,2013-08-06 21:35:00,
2013-08-06 16:36:00,87.1,43.7,29.75,SW,218,8.3,10.1,22,0.00,,CLR,0.00,VWS V14.01,2013-08-06 21:36:00,
2013-08-06 16:37:00,87.1,43.7,29.75,SW,234,7.6,10.1,22,0.00,,CLR,0.00,VWS V14.01,2013-08-06 21:37:00,
2013-08-06 16:38:00,87.4,44.0,29.75,SW,222,8.1,8.1,22,0.00,,CLR,0.00,VWS V14.01,2013-08-06 21:38:00,
2013-08-06 16:40:00,87.8,41.8,29.75,SW,216,7.6,8.3,20,0.00,,CLR,0.00,VWS V14.01,2013-08-06 21:40:00,
2013-08-06 16:41:00,87.8,41.8,29.75,SSW,195,5.8,6.3,20,0.00,,CLR,0.00,VWS V14.01,2013-08-06 21:41:00,
2013-08-06 16:42:00,87.8,41.8,29.75,SSW,210,5.8,5.8,20,0.00,,CLR,0.00,VWS V14.01,2013-08-06 21:42:00,
2013-08-06 16:43:00,88.0,41.9,29.75,SSW,203,5.8,5.8,20,0.00,,CLR,0.00,VWS V14.01,2013-08-06 21:43:00,
2013-08-06 16:45:00,88.7,42.5,29.75,South,177,5.8,6.3,20,0.00,,CLR,0.00,VWS V14.01,2013-08-06 21:45:00,
2013-08-06 16:47:00,89.1,42.8,29.75,SSE,150,3.1,3.6,20,0.00,,CLR,0.00,VWS V14.01,2013-08-06 21:47:00,
2013-08-06 16:48:00,89.2,43.0,29.75,South,176,4.0,4.0,20,0.00,,CLR,0.00,VWS V14.01,2013-08-06 21:48:00,
2013-08-06 16:52:00,89.6,43.3,29.75,WSW,237,8.3,8.7,20,0.00,,CLR,0.00,VWS V14.01,2013-08-06 21:52:00,
2013-08-06 16:53:00,89.6,43.3,29.75,SW,223,8.1,8.7,20,0.00,,CLR,0.00,VWS V14.01,2013-08-06 21:53:00,
2013-08-06 16:54:00,89.6,43.3,29.75,SW,222,6.3,6.3,20,0.00,,CLR,0.00,VWS V14.01,2013-08-06 21:54:00,
2013-08-06 16:57:00,89.6,43.3,29.75,SW,220,6.3,6.3,20,0.00,,CLR,0.00,VWS V14.01,2013-08-06 21:57:00,
2013-08-06 16:58:00,89.6,43.3,29.75,SW,226,7.6,7.6,20,0.00,,CLR,0.00,VWS V14.01,2013-08-06 21:58:00,
2013-08-06 16:59:00,89.8,43.4,29.75,SSW,199,5.4,7.6,20,0.00,,CLR,0.00,VWS V14.01,2013-08-06 21:59:00,
2013-08-06 17:00:00,89.8,43.4,29.75,SSW,212,7.6,8.3,20,0.00,,CLR,0.00,VWS V14.01,2013-08-06 22:00:00,
2013-08-06 17:03:00,90.1,43.7,29.75,SW,220,5.8,8.1,20,0.00,,FEW026,0.00,VWS V14.01,2013-08-06 22:03:00,
2013-08-06 17:04:00,90.3,43.8,29.75,SSW,202,5.4,5.8,20,0.00,,FEW026,0.00,VWS V14.01,2013-08-06 22:04:00,
2013-08-06 17:05:00,90.3,43.8,29.75,SSW,199,5.8,5.8,20,0.00,,FEW026,0.00,VWS V14.01,2013-08-06 22:05:00,
2013-08-06 17:09:00,90.7,44.1,29.75,SSE,155,3.6,6.7,20,0.00,,FEW026,0.00,VWS V14.01,2013-08-06 22:09:00,
2013-08-06 17:10:00,90.7,44.1,29.75,South,178,3.1,6.7,20,0.00,,FEW026,0.00,VWS V14.01,2013-08-06 22:10:00,
2013-08-06 17:11:00,90.9,44.3,29.75,SSW,196,4.0,5.8,20,0.00,,FEW026,0.00,VWS V14.01,2013-08-06 22:11:00,
2013-08-06 17:15:00,91.2,44.6,29.75,SW,235,6.3,6.3,20,0.00,,FEW026,0.00,VWS V14.01,2013-08-06 22:15:00,
2013-08-06 17:16:00,91.2,44.6,29.75,SSW,213,6.3,6.3,20,0.00,,FEW026,0.00,VWS V14.01,2013-08-06 22:16:00,
2013-08-06 17:20:00,91.4,42.0,29.75,SSE,148,5.8,5.8,18,0.00,,FEW026,0.00,VWS V14.01,2013-08-06 22:20:00,
2013-08-06 17:21:00,91.6,42.1,29.75,SSE,148,4.0,5.8,18,0.00,,FEW026,0.00,VWS V14.01,2013-08-06 22:21:00,
2013-08-06 17:22:00,91.8,42.3,29.75,SSW,208,3.1,5.4,18,0.00,,FEW026,0.00,VWS V14.01,2013-08-06 22:22:00,
2013-08-06 17:26:00,91.9,42.4,29.75,South,172,2.7,5.4,18,0.00,,FEW026,0.00,VWS V14.01,2013-08-06 22:26:00,
2013-08-06 17:27:00,91.9,42.4,29.75,SSW,213,8.3,8.3,18,0.00,,FEW026,0.00,VWS V14.01,2013-08-06 22:27:00,
2013-08-06 17:31:00,91.2,44.6,29.75,SSE,157,5.4,5.8,20,0.00,,FEW026,0.00,VWS V14.01,2013-08-06 22:31:00,
2013-08-06 17:32:00,91.2,44.6,29.75,SE,133,5.4,6.3,20,0.00,,FEW026,0.00,VWS V14.01,2013-08-06 22:32:00,
2013-08-06 17:33:00,91.0,44.4,29.75,SE,145,4.9,6.3,20,0.00,,FEW026,0.00,VWS V14.01,2013-08-06 22:33:00,
2013-08-06 17:37:00,90.5,44.0,29.75,SSW,200,6.3,7.6,20,0.00,,FEW026,0.00,VWS V14.01,2013-08-06 22:37:00,
2013-08-06 17:38:00,90.3,43.8,29.75,SSW,206,5.8,6.3,20,0.00,,FEW026,0.00,VWS V14.01,2013-08-06 22:38:00,
2013-08-06 17:42:00,89.8,43.4,29.75,SSE,168,7.6,7.6,20,0.00,,FEW026,0.00,VWS V14.01,2013-08-06 22:42:00,
2013-08-06 17:43:00,89.6,43.3,29.75,SSW,198,6.3,7.6,20,0.00,,FEW026,0.00,VWS V14.01,2013-08-06 22:43:00,
2013-08-06 17:44:00,89.8,43.4,29.75,South,191,5.8,5.8,20,0.00,,FEW026,0.00,VWS V14.01,2013-08-06 22:44:00,
2013-08-06 17:48:00,90.1,43.7,29.75,SSW,198,5.4,8.1,20,0.00,,FEW026,0.00,VWS V14.01,2013-08-06 22:48:00,
2013-08-06 17:49:00,90.1,43.7,29.75,SSE,157,6.7,6.7,20,0.00,,FEW026,0.00,VWS V14.01,2013-08-06 22:49:00,
2013-08-06 17:52:00,90.1,43.7,29.75,SSW,202,4.9,5.8,20,0.00,,FEW026,0.00,VWS V14.01,2013-08-06 22:52:00,
2013-08-06 17:54:00,90.3,43.8,29.75,South,172,5.4,6.3,20,0.00,,FEW026,0.00,VWS V14.01,2013-08-06 22:54:00,
2013-08-06 17:55:00,90.7,44.1,29.75,SSW,201,4.0,6.3,20,0.00,,FEW026,0.00,VWS V14.01,2013-08-06 22:55:00,
2013-08-06 17:57:00,91.0,44.4,29.75,SSW,194,5.4,5.4,20,0.00,,FEW026,0.00,VWS V14.01,2013-08-06 22:57:00,
2013-08-06 17:59:00,91.0,44.4,29.75,WSW,241,5.8,5.8,20,0.00,,FEW026,0.00,VWS V14.01,2013-08-06 22:59:00,
2013-08-06 18:02:00,91.8,42.3,29.75,SW,215,8.3,8.3,18,0.00,,FEW030,0.00,VWS V14.01,2013-08-06 23:02:00,
2013-08-06 18:04:00,91.8,42.3,29.75,SSE,161,5.8,5.8,18,0.00,,FEW030,0.00,VWS V14.01,2013-08-06 23:04:00,
2013-08-06 18:05:00,91.6,42.1,29.75,South,182,8.1,8.3,18,0.00,,FEW030,0.00,VWS V14.01,2013-08-06 23:05:00,
2013-08-06 18:07:00,91.6,42.1,29.75,South,189,5.8,5.8,18,0.00,,FEW030,0.00,VWS V14.01,2013-08-06 23:07:00,
2013-08-06 18:09:00,91.2,44.6,29.75,SSE,157,5.8,6.3,20,0.00,,FEW030,0.00,VWS V14.01,2013-08-06 23:09:00,
2013-08-06 18:10:00,91.0,44.4,29.75,South,181,6.7,6.7,20,0.00,,FEW030,0.00,VWS V14.01,2013-08-06 23:10:00,
2013-08-06 18:11:00,91.0,44.4,29.75,SSE,154,6.3,6.7,20,0.00,,FEW030,0.00,VWS V14.01,2013-08-06 23:11:00,
2013-08-06 18:12:00,90.7,44.1,29.75,South,190,5.4,7.2,20,0.00,,FEW030,0.00,VWS V14.01,2013-08-06 23:12:00,
2013-08-06 18:15:00,90.3,43.8,29.75,SSW,195,6.3,7.6,20,0.00,,FEW030,0.00,VWS V14.01,2013-08-06 23:15:00,
2013-08-06 18:16:00,90.1,43.7,29.75,South,176,4.0,6.3,20,0.00,,FEW030,0.00,VWS V14.01,2013-08-06 23:16:00,
2013-08-06 18:17:00,90.0,43.5,29.75,South,191,6.3,6.3,20,0.00,,FEW030,0.00,VWS V14.01,2013-08-06 23:17:00,
2013-08-06 18:19:00,90.0,43.5,29.75,SSW,193,5.4,6.3,20,0.00,,FEW030,0.00,VWS V14.01,2013-08-06 23:19:00,
2013-08-06 18:21:00,89.8,43.4,29.75,South,178,6.3,7.6,20,0.00,,FEW030,0.00,VWS V14.01,2013-08-06 23:21:00,
2013-08-06 18:22:00,89.8,43.4,29.75,South,189,6.3,6.3,20,0.00,,FEW030,0.00,VWS V14.01,2013-08-06 23:22:00,
2013-08-06 18:24:00,89.8,43.4,29.75,SW,217,6.3,8.7,20,0.00,,FEW030,0.00,VWS V14.01,2013-08-06 23:24:00,
2013-08-06 18:26:00,89.4,43.1,29.75,SW,226,8.1,8.1,20,0.00,,FEW030,0.00,VWS V14.01,2013-08-06 23:26:00,
2013-08-06 18:28:00,89.2,43.0,29.75,SW,223,5.8,5.8,20,0.00,,FEW030,0.00,VWS V14.01,2013-08-06 23:28:00,
2013-08-06 18:29:00,89.2,43.0,29.75,SSW,196,6.3,6.3,20,0.00,,FEW030,0.00,VWS V14.01,2013-08-06 23:29:00,
2013-08-06 18:31:00,89.1,42.8,29.75,South,186,5.8,7.6,20,0.00,,FEW030,0.00,VWS V14.01,2013-08-06 23:31:00,
2013-08-06 18:33:00,88.9,42.7,29.75,SSW,200,5.8,7.6,20,0.00,,FEW030,0.00,VWS V14.01,2013-08-06 23:33:00,
2013-08-06 18:34:00,88.9,42.7,29.75,South,172,5.4,6.3,20,0.00,,FEW030,0.00,VWS V14.01,2013-08-06 23:34:00,
2013-08-06 18:35:00,88.7,42.5,29.75,SSW,203,6.7,6.7,20,0.00,,FEW030,0.00,VWS V14.01,2013-08-06 23:35:00,
2013-08-06 18:37:00,88.7,42.5,29.75,South,172,5.4,5.4,20,0.00,,FEW030,0.00,VWS V14.01,2013-08-06 23:37:00,
2013-08-06 18:38:00,88.7,42.5,29.75,South,182,4.9,5.8,20,0.00,,FEW030,0.00,VWS V14.01,2013-08-06 23:38:00,
2013-08-06 18:39:00,88.7,42.5,29.75,SSE,158,5.8,5.8,20,0.00,,FEW030,0.00,VWS V14.01,2013-08-06 23:39:00,
2013-08-06 18:40:00,88.7,42.5,29.75,South,173,5.4,5.8,20,0.00,,FEW030,0.00,VWS V14.01,2013-08-06 23:40:00,
2013-08-06 18:42:00,88.7,42.5,29.75,SSW,194,5.4,6.3,20,0.00,,FEW030,0.00,VWS V14.01,2013-08-06 23:42:00,
2013-08-06 18:43:00,88.7,42.5,29.75,SSW,213,5.4,6.3,20,0.00,,FEW030,0.00,VWS V14.01,2013-08-06 23:43:00,
2013-08-06 18:44:00,88.7,42.5,29.75,SSE,154,5.8,5.8,20,0.00,,FEW030,0.00,VWS V14.01,2013-08-06 23:44:00,
2013-08-06 18:45:00,88.7,42.5,29.75,South,178,6.3,6.3,20,0.00,,FEW030,0.00,VWS V14.01,2013-08-06 23:45:00,
2013-08-06 18:48:00,88.7,42.5,29.75,South,171,3.6,5.8,20,0.00,,FEW030,0.00,VWS V14.01,2013-08-06 23:48:00,
2013-08-06 18:49:00,88.7,42.5,29.75,South,173,7.2,7.2,20,0.00,,FEW030,0.00,VWS V14.01,2013-08-06 23:49:00,
2013-08-06 18:50:00,88.7,42.5,29.75,South,169,5.4,6.3,20,0.00,,FEW030,0.00,VWS V14.01,2013-08-06 23:50:00,
2013-08-06 18:53:00,88.7,42.5,29.75,SSW,203,4.5,7.2,20,0.00,,FEW030,0.00,VWS V14.01,2013-08-06 23:53:00,
2013-08-06 18:54:00,88.5,42.4,29.75,South,188,5.4,7.6,20,0.00,,FEW030,0.00,VWS V14.01,2013-08-06 23:54:00,
2013-08-06 18:55:00,88.5,42.4,29.75,South,176,5.8,7.6,20,0.00,,FEW030,0.00,VWS V14.01,2013-08-06 23:55:00,
2013-08-06 18:56:00,88.5,42.4,29.75,South,182,4.5,5.8,20,0.00,,FEW030,0.00,VWS V14.01,2013-08-06 23:56:00,
2013-08-06 18:58:00,88.5,42.4,29.75,South,183,4.9,4.9,20,0.00,,FEW030,0.00,VWS V14.01,2013-08-06 23:58:00,
2013-08-06 18:59:00,88.5,42.4,29.75,SSW,199,3.1,4.0,20,0.00,,FEW030,0.00,VWS V14.01,2013-08-06 23:59:00,
2013-08-06 19:00:00,88.5,42.4,29.75,SSW,199,2.2,4.0,20,0.00,,FEW030,0.00,VWS V14.01,2013-08-07 00:00:00,
2013-08-06 19:01:00,88.7,42.5,29.75,SW,218,4.0,4.0,20,0.00,,CLR,0.00,VWS V14.01,2013-08-07 00:01:00,
2013-08-06 19:02:00,88.5,42.4,29.75,SSW,207,4.0,5.4,20,0.00,,CLR,0.00,VWS V14.01,2013-08-07 00:02:00,
2013-08-06 19:04:00,88.7,42.5,29.75,SSW,197,3.6,3.6,20,0.00,,CLR,0.00,VWS V14.01,2013-08-07 00:04:00,
2013-08-06 19:05:00,88.5,42.4,29.75,SSE,168,3.6,4.0,20,0.00,,CLR,0.00,VWS V14.01,2013-08-07 00:05:00,
2013-08-06 19:06:00,88.5,42.4,29.75,South,183,4.0,5.4,20,0.00,,CLR,0.00,VWS V14.01,2013-08-07 00:06:00,
2013-08-06 19:08:00,88.3,42.2,29.75,South,176,6.3,6.3,20,0.00,,CLR,0.00,VWS V14.01,2013-08-07 00:08:00,
2013-08-06 19:09:00,88.2,42.1,29.75,SW,217,6.3,7.6,20,0.00,,CLR,0.00,VWS V14.01,2013-08-07 00:09:00,
2013-08-06 19:10:00,88.2,42.1,29.75,SSW,205,5.8,7.6,20,0.00,,CLR,0.00,VWS V14.01,2013-08-07 00:10:00,
2013-08-06 19:12:00,87.8,41.8,29.75,SSW,201,4.9,6.3,20,0.00,,CLR,0.00,VWS V14.01,2013-08-07 00:12:00,
2013-08-06 19:13:00,87.6,44.1,29.75,SSW,197,5.8,5.8,22,0.00,,CLR,0.00,VWS V14.01,2013-08-07 00:13:00,
2013-08-06 19:15:00,87.6,44.1,29.75,South,190,4.0,5.4,22,0.00,,CLR,0.00,VWS V14.01,2013-08-07 00:15:00,
2013-08-06 19:17:00,87.4,44.0,29.75,SSW,193,3.6,4.0,22,0.00,,CLR,0.00,VWS V14.01,2013-08-07 00:17:00,
2013-08-06 19:18:00,87.4,44.0,29.75,South,179,0.0,0.0,22,0.00,,CLR,0.00,VWS V14.01,2013-08-07 00:18:00,
2013-08-06 19:20:00,87.4,44.0,29.75,South,180,3.1,3.6,22,0.00,,CLR,0.00,VWS V14.01,2013-08-07 00:20:00,
2013-08-06 19:21:00,87.4,44.0,29.75,South,180,2.7,3.6,22,0.00,,CLR,0.00,VWS V14.01,2013-08-07 00:21:00,
2013-08-06 19:22:00,87.4,44.0,29.75,SSE,157,4.0,4.0,22,0.00,,CLR,0.00,VWS V14.01,2013-08-07 00:22:00,
2013-08-06 19:23:00,87.4,44.0,29.75,SSW,194,3.6,4.0,22,0.00,,CLR,0.00,VWS V14.01,2013-08-07 00:23:00,
2013-08-06 19:26:00,87.3,43.8,29.75,SSE,168,3.6,4.9,22,0.00,,CLR,0.00,VWS V14.01,2013-08-07 00:26:00,
2013-08-06 19:28:00,87.1,43.7,29.75,South,180,3.6,4.9,22,0.00,,CLR,0.00,VWS V14.01,2013-08-07 00:28:00,
2013-08-06 19:29:00,86.9,43.5,29.75,South,180,3.1,3.1,22,0.00,,CLR,0.00,VWS V14.01,2013-08-07 00:29:00,
2013-08-06 19:31:00,86.7,43.4,29.75,South,180,3.1,3.1,22,0.00,,CLR,0.00,VWS V14.01,2013-08-07 00:31:00,
2013-08-06 19:32:00,86.7,43.4,29.75,South,180,2.7,2.7,22,0.00,,CLR,0.00,VWS V14.01,2013-08-07 00:32:00,
2013-08-06 19:33:00,86.7,43.4,29.75,South,180,3.1,3.1,22,0.00,,CLR,0.00,VWS V14.01,2013-08-07 00:33:00,
2013-08-06 19:35:00,86.5,43.2,29.75,South,180,3.6,3.6,22,0.00,,CLR,0.00,VWS V14.01,2013-08-07 00:35:00,
2013-08-06 19:36:00,86.4,43.1,29.75,South,177,3.1,3.1,22,0.00,,CLR,0.00,VWS V14.01,2013-08-07 00:36:00,
2013-08-06 19:37:00,86.2,42.9,29.75,South,177,2.7,3.6,22,0.00,,CLR,0.00,VWS V14.01,2013-08-07 00:37:00,
2013-08-06 19:38:00,86.2,42.9,29.75,South,177,3.1,3.6,22,0.00,,CLR,0.00,VWS V14.01,2013-08-07 00:38:00,
2013-08-06 19:42:00,85.8,42.6,29.75,South,177,0.0,2.7,22,0.00,,CLR,0.00,VWS V14.01,2013-08-07 00:42:00,
2013-08-06 19:43:00,85.8,42.6,29.75,South,177,0.0,0.0,22,0.00,,CLR,0.00,VWS V14.01,2013-08-07 00:43:00,
2013-08-06 19:45:00,85.6,42.5,29.75,South,177,0.0,0.0,22,0.00,,CLR,0.00,VWS V14.01,2013-08-07 00:45:00,
2013-08-06 19:46:00,85.6,42.5,29.75,South,177,0.0,0.0,22,0.00,,CLR,0.00,VWS V14.01,2013-08-07 00:46:00,
2013-08-06 19:47:00,85.5,42.3,29.75,South,177,0.0,0.0,22,0.00,,CLR,0.00,VWS V14.01,2013-08-07 00:47:00,
2013-08-06 19:48:00,85.5,42.3,29.75,South,177,0.0,0.0,22,0.00,,CLR,0.00,VWS V14.01,2013-08-07 00:48:00,
2013-08-06 19:50:00,85.3,42.2,29.75,South,177,0.0,0.0,22,0.00,,CLR,0.00,VWS V14.01,2013-08-07 00:50:00,
2013-08-06 19:51:00,85.3,42.2,29.75,South,177,0.0,0.0,22,0.00,,CLR,0.00,VWS V14.01,2013-08-07 00:51:00,
2013-08-06 19:53:00,84.7,41.7,29.75,South,177,0.0,0.0,22,0.00,,CLR,0.00,VWS V14.01,2013-08-07 00:53:00,
2013-08-06 19:54:00,84.7,41.7,29.75,South,177,0.0,0.0,22,0.00,,CLR,0.00,VWS V14.01,2013-08-07 00:54:00,
2013-08-06 19:55:00,84.4,41.4,29.75,South,177,0.0,0.0,22,0.00,,CLR,0.00,VWS V14.01,2013-08-07 00:55:00,
2013-08-06 19:56:00,84.2,41.3,29.75,South,177,0.0,0.0,22,0.00,,CLR,0.00,VWS V14.01,2013-08-07 00:56:00,
2013-08-06 19:59:00,83.8,41.0,29.75,South,177,0.0,3.1,22,0.00,,CLR,0.00,VWS V14.01,2013-08-07 00:59:00,
2013-08-06 20:01:00,83.3,40.5,29.75,South,177,0.0,0.0,22,0.00,,FEW030,0.00,VWS V14.01,2013-08-07 01:01:00,
2013-08-06 20:02:00,82.9,40.2,29.75,South,177,0.0,0.0,22,0.00,,FEW030,0.00,VWS V14.01,2013-08-07 01:02:00,
2013-08-06 20:04:00,82.4,39.8,29.75,South,177,0.0,0.0,22,0.00,,FEW030,0.00,VWS V14.01,2013-08-07 01:04:00,
2013-08-06 20:05:00,82.4,39.8,29.75,South,177,0.0,0.0,22,0.00,,FEW030,0.00,VWS V14.01,2013-08-07 01:05:00,
2013-08-06 20:07:00,81.9,41.6,29.75,South,177,0.0,0.0,24,0.00,,FEW030,0.00,VWS V14.01,2013-08-07 01:07:00,
2013-08-06 20:08:00,81.7,41.4,29.75,South,177,0.0,0.0,24,0.00,,FEW030,0.00,VWS V14.01,2013-08-07 01:08:00,
2013-08-06 20:10:00,81.3,41.1,29.75,South,177,0.0,0.0,24,0.00,,FEW030,0.00,VWS V14.01,2013-08-07 01:10:00,
2013-08-06 20:11:00,81.1,41.0,29.75,South,177,0.0,0.0,24,0.00,,FEW030,0.00,VWS V14.01,2013-08-07 01:11:00,
2013-08-06 20:12:00,80.8,40.7,29.75,South,177,0.0,0.0,24,0.00,,FEW030,0.00,VWS V14.01,2013-08-07 01:12:00,
2013-08-06 20:14:00,80.8,40.7,29.75,South,177,0.0,0.0,24,0.00,,FEW030,0.00,VWS V14.01,2013-08-07 01:14:00,
2013-08-06 20:15:00,80.4,46.2,29.75,South,177,0.0,0.0,30,0.00,,FEW030,0.00,VWS V14.01,2013-08-07 01:15:00,
2013-08-06 20:16:00,80.4,46.2,29.75,South,177,0.0,0.0,30,0.00,,FEW030,0.00,VWS V14.01,2013-08-07 01:16:00,
2013-08-06 20:18:00,80.1,45.9,29.75,South,177,0.0,0.0,30,0.00,,FEW030,0.00,VWS V14.01,2013-08-07 01:18:00,
2013-08-06 20:19:00,80.1,45.9,29.75,South,177,0.0,0.0,30,0.00,,FEW030,0.00,VWS V14.01,2013-08-07 01:19:00,
2013-08-06 20:21:00,79.7,45.6,29.75,South,177,0.0,0.0,30,0.00,,FEW030,0.00,VWS V14.01,2013-08-07 01:21:00,
2013-08-06 20:23:00,79.5,48.7,29.75,South,177,0.0,0.0,34,0.00,,FEW030,0.00,VWS V14.01,2013-08-07 01:23:00,
2013-08-06 20:24:00,79.3,48.6,29.75,South,177,0.0,0.0,34,0.00,,FEW030,0.00,VWS V14.01,2013-08-07 01:24:00,
2013-08-06 20:25:00,79.3,48.6,29.75,South,177,0.0,0.0,34,0.00,,FEW030,0.00,VWS V14.01,2013-08-07 01:25:00,
2013-08-06 20:26:00,79.2,48.4,29.75,South,177,0.0,0.0,34,0.00,,FEW030,0.00,VWS V14.01,2013-08-07 01:26:00,
2013-08-06 20:28:00,78.8,48.1,29.75,South,177,0.0,0.0,34,0.00,,FEW030,0.00,VWS V14.01,2013-08-07 01:28:00,
2013-08-06 20:29:00,78.6,52.3,29.75,South,177,0.0,0.0,40,0.00,,FEW030,0.00,VWS V14.01,2013-08-07 01:29:00,
2013-08-06 20:30:00,78.6,52.3,29.75,South,177,0.0,0.0,40,0.00,,FEW030,0.00,VWS V14.01,2013-08-07 01:30:00,
2013-08-06 20:33:00,78.3,52.0,29.75,South,177,0.0,0.0,40,0.00,,FEW030,0.00,VWS V14.01,2013-08-07 01:33:00,
2013-08-06 20:34:00,78.1,51.8,29.75,South,177,0.0,0.0,40,0.00,,FEW030,0.00,VWS V14.01,2013-08-07 01:34:00,
2013-08-06 20:35:00,78.1,53.2,29.75,South,177,0.0,0.0,42,0.00,,FEW030,0.00,VWS V14.01,2013-08-07 01:35:00,
2013-08-06 20:39:00,77.9,54.3,29.75,South,177,0.0,0.0,44,0.00,,FEW030,0.00,VWS V14.01,2013-08-07 01:39:00,
2013-08-06 20:40:00,77.9,54.3,29.75,South,177,2.2,2.2,44,0.00,,FEW030,0.00,VWS V14.01,2013-08-07 01:40:00,
2013-08-06 20:44:00,77.9,55.5,29.75,South,177,0.0,0.0,46,0.00,,FEW030,0.00,VWS V14.01,2013-08-07 01:44:00,
2013-08-06 20:45:00,77.9,55.5,29.75,South,177,0.0,0.0,46,0.00,,FEW030,0.00,VWS V14.01,2013-08-07 01:45:00,
2013-08-06 20:46:00,77.9,55.5,29.75,South,177,0.0,0.0,46,0.00,,FEW030,0.00,VWS V14.01,2013-08-07 01:46:00,
2013-08-06 20:50:00,77.7,56.5,29.75,South,177,0.0,0.0,48,0.00,,FEW030,0.00,VWS V14.01,2013-08-07 01:50:00,
2013-08-06 20:51:00,77.7,56.5,29.75,South,177,0.0,0.0,48,0.00,,FEW030,0.00,VWS V14.01,2013-08-07 01:51:00,
2013-08-06 20:52:00,77.7,56.5,29.75,South,177,0.0,0.0,48,0.00,,FEW030,0.00,VWS V14.01,2013-08-07 01:52:00,
2013-08-06 20:56:00,77.7,56.5,29.75,South,177,0.0,0.0,48,0.00,,FEW030,0.00,VWS V14.01,2013-08-07 01:56:00,
2013-08-06 20:57:00,77.7,56.5,29.78,South,177,0.0,0.0,48,0.00,,FEW030,0.00,VWS V14.01,2013-08-07 01:57:00,
2013-08-06 21:01:00,77.5,56.3,29.78,South,177,0.0,0.0,48,0.00,,FEW030,0.00,VWS V14.01,2013-08-07 02:01:00,
2013-08-06 21:02:00,77.5,56.3,29.78,South,177,0.0,0.0,48,0.00,,FEW030,0.00,VWS V14.01,2013-08-07 02:02:00,
2013-08-06 21:03:00,77.5,56.3,29.78,South,177,0.0,0.0,48,0.00,,FEW030,0.00,VWS V14.01,2013-08-07 02:03:00,
2013-08-06 21:05:00,77.4,56.2,29.78,South,177,0.0,0.0,48,0.00,,FEW030,0.00,VWS V14.01,2013-08-07 02:05:00,
2013-08-06 21:06:00,77.2,57.1,29.78,South,177,0.0,0.0,50,0.00,,FEW030,0.00,VWS V14.01,2013-08-07 02:06:00,
2013-08-06 21:08:00,77.2,57.1,29.78,South,177,0.0,0.0,50,0.00,,FEW030,0.00,VWS V14.01,2013-08-07 02:08:00,
2013-08-06 21:10:00,77.0,58.0,29.78,South,177,0.0,0.0,52,0.00,,FEW030,0.00,VWS V14.01,2013-08-07 02:10:00,
2013-08-06 21:12:00,76.8,58.9,29.78,South,177,0.0,0.0,54,0.00,,FEW030,0.00,VWS V14.01,2013-08-07 02:12:00,
2013-08-06 21:13:00,76.8,58.9,29.78,South,177,3.1,3.1,54,0.00,,FEW030,0.00,VWS V14.01,2013-08-07 02:13:00,
2013-08-06 21:14:00,76.8,60.9,29.78,SSE,167,0.0,3.1,58,0.00,,FEW030,0.00,VWS V14.01,2013-08-07 02:14:00,
2013-08-06 21:16:00,76.6,61.7,29.78,SSE,159,0.0,0.0,60,0.00,,FEW030,0.00,VWS V14.01,2013-08-07 02:16:00,
2013-08-06 21:18:00,76.6,61.7,29.78,SSE,160,0.0,0.0,60,0.00,,FEW030,0.00,VWS V14.01,2013-08-07 02:18:00,
2013-08-06 21:19:00,76.6,61.7,29.78,SSE,160,2.2,2.2,60,0.00,,FEW030,0.00,VWS V14.01,2013-08-07 02:19:00,
2013-08-06 21:20:00,76.6,61.7,29.78,SSE,159,0.0,0.0,60,0.00,,FEW030,0.00,VWS V14.01,2013-08-07 02:20:00,
2013-08-06 21:21:00,76.6,61.7,29.78,SSE,159,0.0,0.0,60,0.00,,FEW030,0.00,VWS V14.01,2013-08-07 02:21:00,
2013-08-06 21:23:00,76.6,61.7,29.78,SSE,160,3.1,3.1,60,0.00,,FEW030,0.00,VWS V14.01,2013-08-07 02:23:00,
2013-08-06 21:25:00,76.6,62.7,29.78,SSE,160,3.6,3.6,62,0.00,,FEW030,0.00,VWS V14.01,2013-08-07 02:25:00,
2013-08-06 21:27:00,76.5,62.5,29.78,SSE,160,2.7,3.1,62,0.00,,FEW030,0.00,VWS V14.01,2013-08-07 02:27:00,
2013-08-06 21:28:00,76.3,62.3,29.78,SSE,160,2.7,3.1,62,0.00,,FEW030,0.00,VWS V14.01,2013-08-07 02:28:00,
2013-08-06 21:31:00,76.3,62.3,29.78,SE,145,2.7,4.0,62,0.00,,FEW030,0.00,VWS V14.01,2013-08-07 02:31:00,
2013-08-06 21:32:00,76.3,62.3,29.78,SE,145,2.7,2.7,62,0.00,,FEW030,0.00,VWS V14.01,2013-08-07 02:32:00,
2013-08-06 21:33:00,76.3,62.3,29.78,SE,145,3.1,3.1,62,0.00,,FEW030,0.00,VWS V14.01,2013-08-07 02:33:00,
2013-08-06 21:34:00,76.3,62.3,29.78,SE,145,0.0,3.1,62,0.00,,FEW030,0.00,VWS V14.01,2013-08-07 02:34:00,
2013-08-06 21:36:00,76.1,62.2,29.78,SE,145,2.7,2.7,62,0.00,,FEW030,0.00,VWS V14.01,2013-08-07 02:36:00,
2013-08-06 21:37:00,76.3,62.3,29.78,SE,145,3.1,3.1,62,0.00,,FEW030,0.00,VWS V14.01,2013-08-07 02:37:00,
2013-08-06 21:39:00,76.3,62.3,29.78,SE,145,2.7,2.7,62,0.00,,FEW030,0.00,VWS V14.01,2013-08-07 02:39:00,
2013-08-06 21:41:00,76.1,63.0,29.78,SE,146,3.6,3.6,64,0.00,,FEW030,0.00,VWS V14.01,2013-08-07 02:41:00,
2013-08-06 21:42:00,76.1,63.0,29.78,SSE,148,2.7,3.6,64,0.00,,FEW030,0.00,VWS V14.01,2013-08-07 02:42:00,
2013-08-06 21:43:00,76.1,63.0,29.78,SSE,148,3.1,3.6,64,0.00,,FEW030,0.00,VWS V14.01,2013-08-07 02:43:00,
2013-08-06 21:44:00,76.1,63.0,29.78,SSE,149,2.2,4.0,64,0.00,,FEW030,0.00,VWS V14.01,2013-08-07 02:44:00,
2013-08-06 21:45:00,76.1,63.0,29.78,SSE,167,3.6,4.0,64,0.00,,FEW030,0.00,VWS V14.01,2013-08-07 02:45:00,
2013-08-06 21:46:00,76.1,63.0,29.78,SSE,158,2.7,4.0,64,0.00,,FEW030,0.00,VWS V14.01,2013-08-07 02:46:00,
2013-08-06 21:47:00,76.1,63.0,29.78,SSE,160,3.1,4.0,64,0.00,,FEW030,0.00,VWS V14.01,2013-08-07 02:47:00,
2013-08-06 21:48:00,76.1,63.0,29.78,SSE,160,3.6,4.0,64,0.00,,FEW030,0.00,VWS V14.01,2013-08-07 02:48:00,
2013-08-06 21:49:00,76.1,63.0,29.78,SSE,160,2.7,4.0,64,0.00,,FEW030,0.00,VWS V14.01,2013-08-07 02:49:00,
2013-08-06 21:50:00,76.1,63.0,29.78,SSE,161,3.6,3.6,64,0.00,,FEW030,0.00,VWS V14.01,2013-08-07 02:50:00,
2013-08-06 21:52:00,76.1,63.0,29.78,SSE,158,3.6,3.6,64,0.00,,FEW030,0.00,VWS V14.01,2013-08-07 02:52:00,
2013-08-06 21:53:00,76.1,63.0,29.78,SSE,157,4.0,4.0,64,0.00,,FEW030,0.00,VWS V14.01,2013-08-07 02:53:00,
2013-08-06 21:55:00,76.1,63.0,29.78,SSE,159,4.0,4.0,64,0.00,,FEW030,0.00,VWS V14.01,2013-08-07 02:55:00,
2013-08-06 21:57:00,76.1,63.9,29.78,SSE,165,4.0,4.0,66,0.00,,FEW030,0.00,VWS V14.01,2013-08-07 02:57:00,
2013-08-06 21:58:00,76.1,63.9,29.78,SSE,165,4.0,4.0,66,0.00,,FEW030,0.00,VWS V14.01,2013-08-07 02:58:00,
2013-08-06 22:01:00,75.9,63.8,29.78,SSE,156,3.6,4.9,66,0.00,,CLR,0.00,VWS V14.01,2013-08-07 03:01:00,
2013-08-06 22:02:00,75.9,63.8,29.78,SSE,155,4.0,4.9,66,0.00,,CLR,0.00,VWS V14.01,2013-08-07 03:02:00,
2013-08-06 22:04:00,75.9,63.8,29.78,South,179,3.6,3.6,66,0.00,,CLR,0.00,VWS V14.01,2013-08-07 03:04:00,
2013-08-06 22:06:00,75.9,63.8,29.78,SSE,166,5.4,5.4,66,0.00,,CLR,0.00,VWS V14.01,2013-08-07 03:06:00,
2013-08-06 22:07:00,75.9,63.8,29.78,SSE,166,3.1,5.4,66,0.00,,CLR,0.00,VWS V14.01,2013-08-07 03:07:00,
2013-08-06 22:10:00,75.9,63.8,29.78,SSE,166,3.6,4.0,66,0.00,,CLR,0.00,VWS V14.01,2013-08-07 03:10:00,
2013-08-06 22:12:00,76.1,63.9,29.81,SSE,152,5.8,5.8,66,0.00,,CLR,0.00,VWS V14.01,2013-08-07 03:12:00,
2013-08-06 22:13:00,76.1,63.9,29.81,South,174,3.1,5.8,66,0.00,,CLR,0.00,VWS V14.01,2013-08-07 03:13:00,
2013-08-06 22:15:00,76.1,63.9,29.81,SSE,162,3.6,4.0,66,0.00,,CLR,0.00,VWS V14.01,2013-08-07 03:15:00,
2013-08-06 22:18:00,76.3,64.1,29.81,SSE,160,3.6,4.9,66,0.00,,CLR,0.00,VWS V14.01,2013-08-07 03:18:00,
2013-08-06 22:20:00,76.3,64.1,29.81,South,171,3.1,5.8,66,0.00,,CLR,0.00,VWS V14.01,2013-08-07 03:20:00,
2013-08-06 22:23:00,76.3,64.1,29.81,SSE,155,4.0,4.9,66,0.00,,CLR,0.00,VWS V14.01,2013-08-07 03:23:00,
2013-08-06 22:24:00,76.3,63.2,29.81,SSE,157,4.0,4.0,64,0.00,,CLR,0.00,VWS V14.01,2013-08-07 03:24:00,
2013-08-06 22:25:00,76.3,63.2,29.81,SSE,157,3.6,4.0,64,0.00,,CLR,0.00,VWS V14.01,2013-08-07 03:25:00,
2013-08-06 22:28:00,76.3,63.2,29.78,SSE,157,3.6,3.6,64,0.00,,CLR,0.00,VWS V14.01,2013-08-07 03:28:00,
2013-08-06 22:29:00,76.1,63.0,29.78,SSE,152,5.4,5.4,64,0.00,,CLR,0.00,VWS V14.01,2013-08-07 03:29:00,
2013-08-06 22:30:00,76.3,63.2,29.78,SSE,154,3.6,5.4,64,0.00,,CLR,0.00,VWS V14.01,2013-08-07 03:30:00,
2013-08-06 22:32:00,76.1,63.0,29.78,SSE,154,2.7,3.1,64,0.00,,CLR,0.00,VWS V14.01,2013-08-07 03:32:00,
2013-08-06 22:33:00,76.1,63.0,29.78,SSE,157,3.1,3.1,64,0.00,,CLR,0.00,VWS V14.01,2013-08-07 03:33:00,
2013-08-06 22:34:00,76.1,63.0,29.78,SSE,157,2.7,3.6,64,0.00,,CLR,0.00,VWS V14.01,2013-08-07 03:34:00,
2013-08-06 22:35:00,76.1,63.0,29.78,SSE,157,3.1,3.1,64,0.00,,CLR,0.00,VWS V14.01,2013-08-07 03:35:00,
2013-08-06 22:36:00,76.1,63.0,29.78,SSE,157,3.1,3.1,64,0.00,,CLR,0.00,VWS V14.01,2013-08-07 03:36:00,
2013-08-06 22:37:00,76.1,63.0,29.78,SSE,156,4.0,4.0,64,0.00,,CLR,0.00,VWS V14.01,2013-08-07 03:37:00,
2013-08-06 22:39:00,76.1,63.0,29.78,SSE,155,3.6,3.6,64,0.00,,CLR,0.00,VWS V14.01,2013-08-07 03:39:00,
2013-08-06 22:40:00,76.1,63.0,29.78,SSE,155,2.7,3.6,64,0.00,,CLR,0.00,VWS V14.01,2013-08-07 03:40:00,
2013-08-06 22:41:00,76.1,63.0,29.78,SSE,152,3.1,3.1,64,0.00,,CLR,0.00,VWS V14.01,2013-08-07 03:41:00,
2013-08-06 22:42:00,76.1,63.0,29.78,SSE,152,3.1,4.0,64,0.00,,CLR,0.00,VWS V14.01,2013-08-07 03:42:00,
2013-08-06 22:44:00,76.1,63.0,29.78,SSE,148,4.0,4.0,64,0.00,,CLR,0.00,VWS V14.01,2013-08-07 03:44:00,
2013-08-06 22:45:00,76.1,63.0,29.78,SSE,166,2.7,3.1,64,0.00,,CLR,0.00,VWS V14.01,2013-08-07 03:45:00,
2013-08-06 22:47:00,76.1,63.0,29.78,SE,140,3.1,3.6,64,0.00,,CLR,0.00,VWS V14.01,2013-08-07 03:47:00,
2013-08-06 22:48:00,76.1,63.0,29.78,SSE,157,5.4,5.8,64,0.00,,CLR,0.00,VWS V14.01,2013-08-07 03:48:00,
2013-08-06 22:49:00,76.1,63.0,29.78,South,176,4.9,4.9,64,0.00,,CLR,0.00,VWS V14.01,2013-08-07 03:49:00,
2013-08-06 22:50:00,76.1,63.0,29.78,South,171,3.6,4.0,64,0.00,,CLR,0.00,VWS V14.01,2013-08-07 03:50:00,
2013-08-06 22:52:00,76.1,63.9,29.78,South,169,6.3,6.3,66,0.00,,CLR,0.00,VWS V14.01,2013-08-07 03:52:00,
2013-08-06 22:53:00,76.1,63.9,29.78,SSE,167,4.0,4.9,66,0.00,,CLR,0.00,VWS V14.01,2013-08-07 03:53:00,
2013-08-06 22:55:00,76.1,63.9,29.78,South,175,3.6,3.6,66,0.00,,CLR,0.00,VWS V14.01,2013-08-07 03:55:00,
2013-08-06 22:56:00,76.1,63.9,29.78,South,169,4.0,4.0,66,0.00,,CLR,0.00,VWS V14.01,2013-08-07 03:56:00,
2013-08-06 22:58:00,76.1,63.9,29.78,SSE,165,4.0,4.9,66,0.00,,CLR,0.00,VWS V14.01,2013-08-07 03:58:00,
2013-08-06 22:59:00,76.1,63.9,29.78,SSE,160,4.9,4.9,66,0.00,,CLR,0.00,VWS V14.01,2013-08-07 03:59:00,
2013-08-06 23:01:00,76.1,63.9,29.78,SSE,167,4.0,4.5,66,0.00,,CLR,0.00,VWS V14.01,2013-08-07 04:01:00,
2013-08-06 23:06:00,75.9,63.8,29.78,SSE,166,3.6,5.4,66,0.00,,CLR,0.00,VWS V14.01,2013-08-07 04:06:00,
2013-08-06 23:07:00,76.1,63.9,29.78,SSE,163,3.6,4.0,66,0.00,,CLR,0.00,VWS V14.01,2013-08-07 04:07:00,
2013-08-06 23:08:00,76.1,63.9,29.78,SSE,160,2.7,3.6,66,0.00,,CLR,0.00,VWS V14.01,2013-08-07 04:08:00,
2013-08-06 23:11:00,76.1,63.9,29.78,SE,139,3.6,3.6,66,0.00,,CLR,0.00,VWS V14.01,2013-08-07 04:11:00,
2013-08-06 23:12:00,76.1,63.9,29.78,SSE,167,3.1,3.6,66,0.00,,CLR,0.00,VWS V14.01,2013-08-07 04:12:00,
2013-08-06 23:14:00,76.1,63.9,29.78,SSE,157,5.8,5.8,66,0.00,,CLR,0.00,VWS V14.01,2013-08-07 04:14:00,
2013-08-06 23:16:00,76.1,63.9,29.78,South,169,4.9,5.8,66,0.00,,CLR,0.00,VWS V14.01,2013-08-07 04:16:00,
2013-08-06 23:17:00,76.1,63.9,29.78,South,170,2.7,5.8,66,0.00,,CLR,0.00,VWS V14.01,2013-08-07 04:17:00,
2013-08-06 23:19:00,76.1,63.0,29.78,SSE,160,3.6,5.4,64,0.00,,CLR,0.00,VWS V14.01,2013-08-07 04:19:00,
2013-08-06 23:22:00,76.1,63.0,29.78,South,169,6.3,6.3,64,0.00,,CLR,0.00,VWS V14.01,2013-08-07 04:22:00,
2013-08-06 23:23:00,76.1,63.0,29.78,South,172,6.3,6.3,64,0.00,,CLR,0.00,VWS V14.01,2013-08-07 04:23:00,
2013-08-06 23:24:00,76.1,63.0,29.78,SSE,163,6.3,7.6,64,0.00,,CLR,0.00,VWS V14.01,2013-08-07 04:24:00,
2013-08-06 23:25:00,76.1,63.0,29.78,SSE,168,8.7,8.7,64,0.00,,CLR,0.00,VWS V14.01,2013-08-07 04:25:00,
2013-08-06 23:27:00,76.3,63.2,29.78,SSE,162,7.6,7.6,64,0.00,,CLR,0.00,VWS V14.01,2013-08-07 04:27:00,
2013-08-06 23:28:00,76.3,63.2,29.78,South,179,5.8,5.8,64,0.00,,CLR,0.00,VWS V14.01,2013-08-07 04:28:00,
2013-08-06 23:29:00,76.3,63.2,29.78,SSE,157,5.4,5.8,64,0.00,,CLR,0.00,VWS V14.01,2013-08-07 04:29:00,
2013-08-06 23:30:00,76.5,63.4,29.78,SSE,166,5.4,5.4,64,0.00,,CLR,0.00,VWS V14.01,2013-08-07 04:30:00,
2013-08-06 23:31:00,76.5,63.4,29.78,South,187,5.8,7.6,64,0.00,,CLR,0.00,VWS V14.01,2013-08-07 04:31:00,
2013-08-06 23:33:00,76.5,63.4,29.78,SSE,162,2.7,5.4,64,0.00,,CLR,0.00,VWS V14.01,2013-08-07 04:33:00,
2013-08-06 23:34:00,76.5,62.5,29.78,SSE,165,3.6,5.4,62,0.00,,CLR,0.00,VWS V14.01,2013-08-07 04:34:00,
2013-08-06 23:35:00,76.5,62.5,29.78,SSE,164,4.0,4.9,62,0.00,,CLR,0.00,VWS V14.01,2013-08-07 04:35:00,
2013-08-06 23:36:00,76.5,62.5,29.78,SSE,165,4.0,4.0,62,0.00,,CLR,0.00,VWS V14.01,2013-08-07 04:36:00,
2013-08-06 23:37:00,76.5,62.5,29.78,SSE,164,3.1,5.8,62,0.00,,CLR,0.00,VWS V14.01,2013-08-07 04:37:00,
2013-08-06 23:38:00,76.5,62.5,29.78,South,171,5.4,5.8,62,0.00,,CLR,0.00,VWS V14.01,2013-08-07 04:38:00,
2013-08-06 23:39:00,76.5,62.5,29.78,South,171,4.9,5.4,62,0.00,,CLR,0.00,VWS V14.01,2013-08-07 04:39:00,
2013-08-06 23:41:00,76.5,62.5,29.78,SSE,166,7.6,7.6,62,0.00,,CLR,0.00,VWS V14.01,2013-08-07 04:41:00,
2013-08-06 23:42:00,76.5,62.5,29.78,SSE,160,6.3,7.6,62,0.00,,CLR,0.00,VWS V14.01,2013-08-07 04:42:00,
2013-08-06 23:43:00,76.5,62.5,29.78,South,176,5.8,6.3,62,0.00,,CLR,0.00,VWS V14.01,2013-08-07 04:43:00,
2013-08-06 23:44:00,76.5,62.5,29.78,SSE,167,4.9,4.9,62,0.00,,CLR,0.00,VWS V14.01,2013-08-07 04:44:00,
2013-08-06 23:45:00,76.5,62.5,29.78,SSE,158,4.0,4.0,62,0.00,,CLR,0.00,VWS V14.01,2013-08-07 04:45:00,
2013-08-06 23:46:00,76.5,62.5,29.78,SSE,153,5.8,5.8,62,0.00,,CLR,0.00,VWS V14.01,2013-08-07 04:46:00,
2013-08-06 23:47:00,76.5,62.5,29.78,SSE,165,5.8,5.8,62,0.00,,CLR,0.00,VWS V14.01,2013-08-07 04:47:00,
2013-08-06 23:49:00,76.5,62.5,29.78,SSE,153,6.7,6.7,62,0.00,,CLR,0.00,VWS V14.01,2013-08-07 04:49:00,
2013-08-06 23:50:00,76.6,62.7,29.78,SSE,163,4.0,6.7,62,0.00,,CLR,0.00,VWS V14.01,2013-08-07 04:50:00,
2013-08-06 23:51:00,76.6,62.7,29.78,SSE,157,5.4,5.8,62,0.00,,CLR,0.00,VWS V14.01,2013-08-07 04:51:00,
2013-08-06 23:52:00,76.6,62.7,29.78,SSE,153,4.9,5.8,62,0.00,,CLR,0.00,VWS V14.01,2013-08-07 04:52:00,
2013-08-06 23:53:00,76.6,62.7,29.78,SE,145,5.8,6.3,62,0.00,,CLR,0.00,VWS V14.01,2013-08-07 04:53:00,
2013-08-06 23:54:00,76.6,62.7,29.78,SSE,155,3.6,4.5,62,0.00,,CLR,0.00,VWS V14.01,2013-08-07 04:54:00,
2013-08-06 23:55:00,76.6,62.7,29.78,SSE,168,3.1,5.8,62,0.00,,CLR,0.00,VWS V14.01,2013-08-07 04:55:00,
2013-08-06 23:57:00,76.6,62.7,29.78,SSE,153,4.0,5.4,62,0.00,,CLR,0.00,VWS V14.01,2013-08-07 04:57:00,
2013-08-06 23:58:00,76.6,62.7,29.78,South,180,4.9,4.9,62,0.00,,CLR,0.00,VWS V14.01,2013-08-07 04:58:00,
2013-08-06 23:59:00,76.6,62.7,29.78,SSE,160,8.1,8.1,62,0.00,,CLR,0.00,VWS V14.01,2013-08-07 04:59:00,